Wetterdaten: Samstag, 13.08.2016
Datum Zeit Temp. Aussen Temp. o. S. +5cm Feuchte Auss BlattFeu 1 Luftdruck Regen Sonnenschein Regendauer Solar Windben Empfang
13.08.2016 00:00 18,2 C 17,8 C 15,6 C 90 % 2 lf 1022,2 hPa 0,0 l/m 0 min 0 min 5 W/m 10,5 km/h (2 Bft) 95,74 %
13.08.2016 00:02 18,2 C 17,8 C 16,1 C 90 % 2 lf 1022,2 hPa 0,0 l/m 0 min 0 min 5 W/m 10,5 km/h (2 Bft) 92,11 %
13.08.2016 00:05 18,2 C 17,8 C 15,6 C 90 % 2 lf 1022,0 hPa 0,0 l/m 0 min 0 min 5 W/m 8,4 km/h (2 Bft) 95,71 %
13.08.2016 00:06 18,2 C 17,8 C 15,6 C 90 % 2 lf 1022,0 hPa 0,0 l/m 0 min 0 min 5 W/m 10,5 km/h (2 Bft) 95,83 %
13.08.2016 00:08 18,2 C 17,8 C 15,6 C 90 % 2 lf 1022,0 hPa 0,0 l/m 0 min 0 min 5 W/m 6,3 km/h (2 Bft) 95,74 %
13.08.2016 00:10 18,2 C 17,8 C 15,6 C 90 % 2 lf 1022,1 hPa 0,0 l/m 0 min 0 min 5 W/m 8,4 km/h (2 Bft) 95,65 %
13.08.2016 00:12 18,2 C 17,8 C 15,6 C 90 % 2 lf 1022,1 hPa 0,0 l/m 0 min 0 min 5 W/m 8,4 km/h (2 Bft) 95,74 %
13.08.2016 00:14 18,1 C 17,8 C 15,6 C 90 % 2 lf 1022,0 hPa 0,0 l/m 0 min 0 min 5 W/m 8,4 km/h (2 Bft) 95,74 %
13.08.2016 00:16 18,1 C 17,8 C 15,6 C 90 % 2 lf 1022,0 hPa 0,0 l/m 0 min 0 min 0 W/m 8,4 km/h (2 Bft) 97,87 %
13.08.2016 00:18 18,1 C 17,8 C 15,6 C 90 % 2 lf 1022,0 hPa 0,0 l/m 0 min 0 min 5 W/m 12,6 km/h (3 Bft) 93,62 %
13.08.2016 00:20 18,1 C 17,8 C 15,6 C 90 % 2 lf 1021,9 hPa 0,0 l/m 0 min 0 min 5 W/m 10,5 km/h (2 Bft) 93,62 %
13.08.2016 00:22 18,1 C 17,8 C 15,6 C 91 % 2 lf 1022,0 hPa 0,0 l/m 0 min 0 min 5 W/m 16,7 km/h (3 Bft) 97,83 %
13.08.2016 00:24 18,1 C 17,8 C 15,6 C 91 % 2 lf 1021,9 hPa 0,0 l/m 0 min 0 min 5 W/m 10,5 km/h (2 Bft) 97,87 %
13.08.2016 00:26 18,1 C 17,8 C 15,6 C 91 % 2 lf 1022,0 hPa 0,0 l/m 0 min 0 min 5 W/m 6,3 km/h (2 Bft) 97,87 %
13.08.2016 00:28 18,0 C 17,8 C 15,0 C 91 % 2 lf 1021,9 hPa 0,0 l/m 0 min 0 min 5 W/m 10,5 km/h (2 Bft) 97,87 %
13.08.2016 00:30 18,0 C 17,8 C 15,6 C 91 % 2 lf 1021,9 hPa 0,0 l/m 0 min 0 min 5 W/m 6,3 km/h (2 Bft) 91,49 %
13.08.2016 00:32 18,0 C 17,2 C 15,0 C 91 % 2 lf 1021,9 hPa 0,0 l/m 0 min 0 min 5 W/m 6,3 km/h (2 Bft) 95,74 %
13.08.2016 00:34 18,0 C 17,2 C 15,0 C 91 % 2 lf 1021,9 hPa 0,0 l/m 0 min 0 min 5 W/m 10,5 km/h (2 Bft) 100,00 %
13.08.2016 00:36 17,9 C 17,2 C 15,0 C 91 % 2 lf 1021,9 hPa 0,0 l/m 0 min 0 min 5 W/m 8,4 km/h (2 Bft) 97,87 %
13.08.2016 00:38 17,9 C 17,2 C 15,0 C 91 % 3 lf 1021,9 hPa 0,0 l/m 0 min 0 min 5 W/m 8,4 km/h (2 Bft) 95,74 %
13.08.2016 00:40 17,9 C 17,2 C 15,0 C 91 % 2 lf 1021,8 hPa 0,0 l/m 0 min 0 min 5 W/m 10,5 km/h (2 Bft) 93,62 %
13.08.2016 00:42 17,9 C 17,2 C 15,0 C 91 % 2 lf 1021,9 hPa 0,0 l/m 0 min 0 min 5 W/m 6,3 km/h (2 Bft) 95,74 %
13.08.2016 00:44 17,9 C 17,2 C 15,0 C 91 % 3 lf 1021,9 hPa 0,0 l/m 0 min 0 min 5 W/m 8,4 km/h (2 Bft) 97,87 %
13.08.2016 00:46 17,9 C 17,2 C 15,0 C 90 % 3 lf 1021,8 hPa 0,0 l/m 0 min 0 min 5 W/m 10,5 km/h (2 Bft) 97,83 %
13.08.2016 00:48 17,8 C 17,2 C 15,0 C 90 % 3 lf 1021,8 hPa 0,0 l/m 0 min 0 min 5 W/m 8,4 km/h (2 Bft) 100,00 %
13.08.2016 00:50 17,8 C 17,2 C 15,0 C 90 % 3 lf 1021,8 hPa 0,0 l/m 0 min 0 min 5 W/m 8,4 km/h (2 Bft) 95,74 %
13.08.2016 00:52 17,8 C 17,2 C 15,0 C 91 % 3 lf 1021,8 hPa 0,0 l/m 0 min 0 min 5 W/m 10,5 km/h (2 Bft) 97,87 %
13.08.2016 00:54 17,8 C 17,2 C 15,0 C 91 % 3 lf 1021,8 hPa 0,0 l/m 0 min 0 min 5 W/m 8,4 km/h (2 Bft) 95,74 %
13.08.2016 00:56 17,8 C 17,2 C 15,0 C 91 % 3 lf 1021,8 hPa 0,0 l/m 0 min 0 min 5 W/m 8,4 km/h (2 Bft) 97,87 %
13.08.2016 00:58 17,7 C 17,2 C 15,0 C 91 % 3 lf 1021,8 hPa 0,0 l/m 0 min 0 min 5 W/m 10,5 km/h (2 Bft) 93,48 %
13.08.2016 01:00 17,7 C 17,2 C 15,0 C 91 % 3 lf 1021,8 hPa 0,0 l/m 0 min 0 min 5 W/m 8,4 km/h (2 Bft) 97,87 %
13.08.2016 01:02 17,7 C 17,2 C 15,0 C 91 % 3 lf 1021,8 hPa 0,0 l/m 0 min 0 min 5 W/m 8,4 km/h (2 Bft) 94,00 %
13.08.2016 01:04 17,7 C 17,2 C 15,0 C 91 % 3 lf 1021,8 hPa 0,0 l/m 0 min 0 min 0 W/m 10,5 km/h (2 Bft) 95,74 %
13.08.2016 01:06 17,6 C 17,2 C 15,0 C 91 % 3 lf 1021,8 hPa 0,0 l/m 0 min 0 min 0 W/m 10,5 km/h (2 Bft) 95,74 %
13.08.2016 01:08 17,6 C 17,2 C 15,0 C 91 % 3 lf 1021,8 hPa 0,0 l/m 0 min 0 min 0 W/m 8,4 km/h (2 Bft) 91,30 %
13.08.2016 01:10 17,6 C 17,2 C 15,0 C 91 % 3 lf 1021,8 hPa 0,0 l/m 0 min 0 min 0 W/m 8,4 km/h (2 Bft) 93,62 %
13.08.2016 01:12 17,6 C 16,7 C 15,0 C 91 % 3 lf 1021,8 hPa 0,0 l/m 0 min 0 min 0 W/m 8,4 km/h (2 Bft) 93,62 %
13.08.2016 01:14 17,6 C 16,7 C 15,0 C 91 % 3 lf 1021,7 hPa 0,0 l/m 0 min 0 min 0 W/m 6,3 km/h (2 Bft) 95,74 %
13.08.2016 01:16 17,5 C 16,7 C 15,0 C 91 % 3 lf 1021,7 hPa 0,0 l/m 0 min 0 min 0 W/m 8,4 km/h (2 Bft) 95,74 %
13.08.2016 01:18 17,5 C 16,7 C 14,4 C 91 % 3 lf 1021,6 hPa 0,0 l/m 0 min 0 min 0 W/m 6,3 km/h (2 Bft) 95,74 %
13.08.2016 01:20 17,5 C 16,7 C 14,4 C 91 % 3 lf 1021,6 hPa 0,0 l/m 0 min 0 min 0 W/m 6,3 km/h (2 Bft) 93,48 %
13.08.2016 01:22 17,4 C 16,7 C 14,4 C 91 % 3 lf 1021,7 hPa 0,0 l/m 0 min 0 min 0 W/m 8,4 km/h (2 Bft) 97,87 %
13.08.2016 01:24 17,4 C 16,7 C 14,4 C 91 % 3 lf 1021,7 hPa 0,0 l/m 0 min 0 min 0 W/m 6,3 km/h (2 Bft) 95,74 %
13.08.2016 01:26 17,4 C 16,7 C 14,4 C 91 % 3 lf 1021,7 hPa 0,0 l/m 0 min 0 min 0 W/m 6,3 km/h (2 Bft) 93,62 %
13.08.2016 01:28 17,4 C 16,7 C 14,4 C 91 % 3 lf 1021,7 hPa 0,0 l/m 0 min 0 min 0 W/m 10,5 km/h (2 Bft) 91,49 %
13.08.2016 01:30 17,4 C 16,7 C 14,4 C 91 % 3 lf 1021,7 hPa 0,0 l/m 0 min 0 min 0 W/m 10,5 km/h (2 Bft) 97,87 %
13.08.2016 01:32 17,3 C 16,7 C 14,4 C 91 % 3 lf 1021,7 hPa 0,0 l/m 0 min 0 min 0 W/m 10,5 km/h (2 Bft) 95,65 %
13.08.2016 01:34 17,3 C 16,7 C 14,4 C 91 % 3 lf 1021,7 hPa 0,0 l/m 0 min 0 min 0 W/m 10,5 km/h (2 Bft) 97,87 %
13.08.2016 01:36 17,3 C 16,7 C 14,4 C 91 % 3 lf 1021,7 hPa 0,0 l/m 0 min 0 min 0 W/m 6,3 km/h (2 Bft) 97,87 %
13.08.2016 01:38 17,3 C 16,7 C 14,4 C 91 % 3 lf 1021,6 hPa 0,0 l/m 0 min 0 min 0 W/m 6,3 km/h (2 Bft) 95,74 %
13.08.2016 01:40 17,3 C 16,1 C 14,4 C 91 % 3 lf 1021,7 hPa 0,0 l/m 0 min 0 min 0 W/m 10,5 km/h (2 Bft) 97,87 %
13.08.2016 01:42 17,2 C 16,1 C 14,4 C 91 % 3 lf 1021,6 hPa 0,0 l/m 0 min 0 min 0 W/m 6,3 km/h (2 Bft) 93,62 %
13.08.2016 01:44 17,2 C 16,1 C 13,9 C 91 % 4 lf 1021,6 hPa 0,0 l/m 0 min 0 min 5 W/m 6,3 km/h (2 Bft) 93,48 %
13.08.2016 01:46 17,2 C 16,1 C 13,9 C 91 % 4 lf 1021,7 hPa 0,0 l/m 0 min 0 min 5 W/m 10,5 km/h (2 Bft) 97,87 %
13.08.2016 01:48 17,2 C 16,1 C 13,9 C 92 % 4 lf 1021,6 hPa 0,0 l/m 0 min 0 min 5 W/m 10,5 km/h (2 Bft) 97,87 %
13.08.2016 01:50 17,1 C 16,1 C 13,9 C 91 % 4 lf 1021,6 hPa 0,0 l/m 0 min 0 min 5 W/m 6,3 km/h (2 Bft) 97,87 %
13.08.2016 01:52 17,1 C 16,1 C 13,9 C 91 % 4 lf 1021,6 hPa 0,0 l/m 0 min 0 min 5 W/m 4,2 km/h (1 Bft) 100,00 %
13.08.2016 01:54 17,1 C 16,1 C 13,9 C 91 % 4 lf 1021,6 hPa 0,0 l/m 0 min 0 min 5 W/m 6,3 km/h (2 Bft) 97,83 %
13.08.2016 01:56 17,1 C 16,1 C 13,9 C 91 % 5 lf 1021,6 hPa 0,0 l/m 0 min 0 min 5 W/m 6,3 km/h (2 Bft) 97,87 %
13.08.2016 01:58 17,0 C 16,1 C 13,9 C 91 % 5 lf 1021,6 hPa 0,0 l/m 0 min 0 min 5 W/m 6,3 km/h (2 Bft) 97,87 %
13.08.2016 02:00 17,0 C 16,1 C 13,9 C 91 % 6 lf 1021,6 hPa 0,0 l/m 0 min 0 min 5 W/m 10,5 km/h (2 Bft) 100,00 %
13.08.2016 02:02 17,0 C 16,1 C 13,9 C 92 % 6 lf 1021,6 hPa 0,0 l/m 0 min 0 min 5 W/m 12,6 km/h (3 Bft) 95,83 %
13.08.2016 02:04 16,9 C 16,1 C 13,9 C 92 % 6 lf 1021,6 hPa 0,0 l/m 0 min 0 min 5 W/m 8,4 km/h (2 Bft) 97,87 %
13.08.2016 02:06 16,9 C 16,1 C 13,9 C 92 % 7 lf 1021,5 hPa 0,0 l/m 0 min 0 min 5 W/m 10,5 km/h (2 Bft) 100,00 %
13.08.2016 02:08 16,9 C 16,1 C 13,9 C 92 % 7 lf 1021,5 hPa 0,0 l/m 0 min 0 min 5 W/m 6,3 km/h (2 Bft) 100,00 %
13.08.2016 02:10 16,9 C 16,1 C 13,9 C 92 % 8 lf 1021,5 hPa 0,0 l/m 0 min 0 min 5 W/m 8,4 km/h (2 Bft) 97,87 %
13.08.2016 02:12 16,9 C 16,1 C 13,9 C 92 % 8 lf 1021,5 hPa 0,0 l/m 0 min 0 min 5 W/m 6,3 km/h (2 Bft) 100,00 %
13.08.2016 02:14 16,8 C 16,1 C 13,9 C 92 % 9 lf 1021,4 hPa 0,0 l/m 0 min 0 min 5 W/m 8,4 km/h (2 Bft) 100,00 %
13.08.2016 02:16 16,8 C 16,1 C 13,9 C 92 % 9 lf 1021,5 hPa 0,0 l/m 0 min 0 min 5 W/m 8,4 km/h (2 Bft) 95,74 %
13.08.2016 02:18 16,8 C 16,1 C 13,9 C 92 % 9 lf 1021,4 hPa 0,0 l/m 0 min 0 min 5 W/m 6,3 km/h (2 Bft) 97,83 %
13.08.2016 02:20 16,8 C 16,1 C 13,9 C 92 % 10 lf 1021,4 hPa 0,0 l/m 0 min 0 min 5 W/m 8,4 km/h (2 Bft) 97,87 %
13.08.2016 02:22 16,8 C 16,1 C 13,9 C 92 % 10 lf 1021,4 hPa 0,0 l/m 0 min 0 min 5 W/m 8,4 km/h (2 Bft) 100,00 %
13.08.2016 02:24 16,7 C 16,1 C 13,9 C 92 % 10 lf 1021,4 hPa 0,0 l/m 0 min 0 min 5 W/m 6,3 km/h (2 Bft) 97,87 %
13.08.2016 02:26 16,7 C 16,1 C 13,9 C 92 % 10 lf 1021,3 hPa 0,0 l/m 0 min 0 min 5 W/m 10,5 km/h (2 Bft) 100,00 %
13.08.2016 02:28 16,7 C 16,1 C 13,9 C 92 % 11 lf 1021,3 hPa 0,0 l/m 0 min 0 min 5 W/m 6,3 km/h (2 Bft) 100,00 %
13.08.2016 02:30 16,7 C 16,1 C 13,9 C 92 % 11 lf 1021,3 hPa 0,0 l/m 0 min 0 min 5 W/m 8,4 km/h (2 Bft) 93,48 %
13.08.2016 02:32 16,6 C 16,1 C 13,9 C 93 % 12 lf 1021,3 hPa 0,0 l/m 0 min 0 min 5 W/m 8,4 km/h (2 Bft) 100,00 %
13.08.2016 02:34 16,6 C 16,1 C 13,9 C 93 % 12 lf 1021,3 hPa 0,0 l/m 0 min 0 min 5 W/m 6,3 km/h (2 Bft) 95,74 %
13.08.2016 02:36 16,6 C 16,1 C 13,9 C 93 % 12 lf 1021,3 hPa 0,0 l/m 0 min 0 min 5 W/m 8,4 km/h (2 Bft) 100,00 %
13.08.2016 02:38 16,6 C 16,1 C 13,9 C 93 % 12 lf 1021,3 hPa 0,0 l/m 0 min 0 min 5 W/m 4,2 km/h (1 Bft) 93,62 %
13.08.2016 02:40 16,6 C 16,1 C 13,9 C 93 % 13 lf 1021,3 hPa 0,0 l/m 0 min 0 min 5 W/m 10,5 km/h (2 Bft) 91,49 %
13.08.2016 02:42 16,5 C 16,1 C 13,9 C 93 % 13 lf 1021,2 hPa 0,0 l/m 0 min 0 min 5 W/m 8,4 km/h (2 Bft) 97,83 %
13.08.2016 02:44 16,5 C 16,1 C 13,9 C 93 % 13 lf 1021,2 hPa 0,0 l/m 0 min 0 min 5 W/m 6,3 km/h (2 Bft) 95,74 %
13.08.2016 02:46 16,5 C 16,1 C 13,9 C 93 % 13 lf 1021,3 hPa 0,0 l/m 0 min 0 min 5 W/m 6,3 km/h (2 Bft) 95,74 %
13.08.2016 02:48 16,5 C 16,1 C 13,9 C 93 % 13 lf 1021,3 hPa 0,0 l/m 0 min 0 min 5 W/m 4,2 km/h (1 Bft) 93,62 %
13.08.2016 02:50 16,4 C 16,1 C 13,9 C 93 % 13 lf 1021,2 hPa 0,0 l/m 0 min 0 min 5 W/m 6,3 km/h (2 Bft) 93,62 %
13.08.2016 02:52 16,4 C 15,6 C 13,3 C 93 % 13 lf 1021,2 hPa 0,0 l/m 0 min 0 min 5 W/m 6,3 km/h (2 Bft) 93,62 %
13.08.2016 02:54 16,4 C 15,6 C 13,3 C 93 % 14 lf 1021,2 hPa 0,0 l/m 0 min 0 min 5 W/m 6,3 km/h (2 Bft) 91,30 %
13.08.2016 02:56 16,4 C 15,6 C 13,3 C 93 % 14 lf 1021,2 hPa 0,0 l/m 0 min 0 min 0 W/m 6,3 km/h (2 Bft) 93,62 %
13.08.2016 02:58 16,4 C 15,6 C 13,3 C 93 % 14 lf 1021,2 hPa 0,0 l/m 0 min 0 min 0 W/m 6,3 km/h (2 Bft) 91,49 %
13.08.2016 03:00 16,4 C 15,6 C 13,3 C 93 % 14 lf 1021,1 hPa 0,0 l/m 0 min 0 min 0 W/m 6,3 km/h (2 Bft) 93,62 %
13.08.2016 03:02 16,3 C 15,6 C 13,3 C 93 % 14 lf 1021,2 hPa 0,0 l/m 0 min 0 min 0 W/m 6,3 km/h (2 Bft) 93,62 %
13.08.2016 03:04 16,3 C 15,6 C 13,3 C 93 % 14 lf 1021,2 hPa 0,0 l/m 0 min 0 min 0 W/m 6,3 km/h (2 Bft) 91,49 %
13.08.2016 03:06 16,3 C 15,6 C 13,3 C 93 % 14 lf 1021,2 hPa 0,0 l/m 0 min 0 min 0 W/m 6,3 km/h (2 Bft) 91,30 %
13.08.2016 03:08 16,3 C 15,6 C 13,3 C 94 % 14 lf 1021,2 hPa 0,0 l/m 0 min 0 min 0 W/m 6,3 km/h (2 Bft) 91,49 %
13.08.2016 03:10 16,2 C 15,6 C 13,3 C 94 % 15 lf 1021,2 hPa 0,0 l/m 0 min 0 min 0 W/m 6,3 km/h (2 Bft) 91,49 %
13.08.2016 03:12 16,2 C 15,6 C 13,3 C 94 % 14 lf 1021,2 hPa 0,0 l/m 0 min 0 min 0 W/m 6,3 km/h (2 Bft) 93,62 %
13.08.2016 03:14 16,2 C 15,6 C 13,3 C 93 % 15 lf 1021,1 hPa 0,0 l/m 0 min 0 min 0 W/m 6,3 km/h (2 Bft) 91,49 %
13.08.2016 03:16 16,2 C 15,6 C 13,3 C 94 % 15 lf 1021,1 hPa 0,0 l/m 0 min 0 min 0 W/m 6,3 km/h (2 Bft) 93,48 %
13.08.2016 03:18 16,1 C 15,6 C 13,3 C 94 % 15 lf 1021,1 hPa 0,0 l/m 0 min 0 min 0 W/m 6,3 km/h (2 Bft) 95,74 %
13.08.2016 03:20 16,1 C 15,6 C 13,3 C 94 % 15 lf 1021,1 hPa 0,0 l/m 0 min 0 min 0 W/m 6,3 km/h (2 Bft) 93,62 %
13.08.2016 03:22 16,1 C 15,6 C 13,3 C 94 % 15 lf 1021,1 hPa 0,0 l/m 0 min 0 min 0 W/m 8,4 km/h (2 Bft) 91,49 %
13.08.2016 03:24 16,1 C 15,6 C 13,3 C 94 % 15 lf 1021,1 hPa 0,0 l/m 0 min 0 min 0 W/m 6,3 km/h (2 Bft) 95,74 %
13.08.2016 03:26 16,1 C 15,6 C 13,3 C 94 % 15 lf 1021,1 hPa 0,0 l/m 0 min 0 min 0 W/m 6,3 km/h (2 Bft) 95,74 %
13.08.2016 03:28 16,1 C 15,6 C 13,3 C 94 % 15 lf 1021,0 hPa 0,0 l/m 0 min 0 min 0 W/m 10,5 km/h (2 Bft) 97,83 %
13.08.2016 03:30 16,0 C 15,6 C 13,3 C 94 % 15 lf 1021,1 hPa 0,0 l/m 0 min 0 min 0 W/m 6,3 km/h (2 Bft) 97,87 %
13.08.2016 03:32 16,0 C 15,6 C 13,3 C 94 % 15 lf 1021,1 hPa 0,0 l/m 0 min 0 min 0 W/m 6,3 km/h (2 Bft) 93,62 %
13.08.2016 03:34 16,0 C 15,6 C 13,3 C 94 % 15 lf 1021,0 hPa 0,0 l/m 0 min 0 min 0 W/m 6,3 km/h (2 Bft) 95,74 %
13.08.2016 03:36 15,9 C 15,6 C 13,3 C 94 % 15 lf 1021,0 hPa 0,0 l/m 0 min 0 min 0 W/m 8,4 km/h (2 Bft) 97,87 %
13.08.2016 03:38 15,9 C 15,6 C 13,3 C 94 % 15 lf 1021,0 hPa 0,0 l/m 0 min 0 min 0 W/m 8,4 km/h (2 Bft) 95,74 %
13.08.2016 03:40 15,9 C 15,6 C 13,3 C 94 % 15 lf 1021,0 hPa 0,0 l/m 0 min 0 min 0 W/m 4,2 km/h (1 Bft) 95,65 %
13.08.2016 03:42 15,9 C 15,0 C 13,3 C 94 % 15 lf 1021,0 hPa 0,0 l/m 0 min 0 min 0 W/m 6,3 km/h (2 Bft) 95,74 %
13.08.2016 03:44 15,9 C 15,0 C 12,8 C 94 % 15 lf 1021,1 hPa 0,0 l/m 0 min 0 min 0 W/m 4,2 km/h (1 Bft) 97,87 %
13.08.2016 03:46 15,9 C 15,0 C 12,8 C 94 % 15 lf 1021,0 hPa 0,0 l/m 0 min 0 min 0 W/m 6,3 km/h (2 Bft) 97,87 %
13.08.2016 03:48 15,8 C 15,6 C 12,8 C 94 % 15 lf 1021,1 hPa 0,0 l/m 0 min 0 min 0 W/m 6,3 km/h (2 Bft) 95,74 %
13.08.2016 03:50 15,8 C 15,0 C 12,8 C 94 % 15 lf 1021,0 hPa 0,0 l/m 0 min 0 min 0 W/m 4,2 km/h (1 Bft) 97,87 %
13.08.2016 03:52 15,8 C 15,0 C 12,8 C 94 % 15 lf 1021,0 hPa 0,0 l/m 0 min 0 min 0 W/m 4,2 km/h (1 Bft) 97,83 %
13.08.2016 03:54 15,8 C 15,0 C 12,8 C 94 % 15 lf 1021,0 hPa 0,0 l/m 0 min 0 min 0 W/m 4,2 km/h (1 Bft) 95,74 %
13.08.2016 03:56 15,8 C 15,0 C 12,8 C 94 % 15 lf 1021,0 hPa 0,0 l/m 0 min 0 min 0 W/m 4,2 km/h (1 Bft) 93,62 %
13.08.2016 03:58 15,7 C 15,0 C 12,8 C 94 % 15 lf 1021,0 hPa 0,0 l/m 0 min 0 min 0 W/m 10,5 km/h (2 Bft) 95,74 %
13.08.2016 04:00 15,7 C 15,0 C 13,3 C 95 % 15 lf 1021,0 hPa 0,0 l/m 0 min 0 min 0 W/m 8,4 km/h (2 Bft) 91,49 %
13.08.2016 04:05 15,7 C 15,0 C 13,3 C 95 % 15 lf 1021,1 hPa 0,0 l/m 0 min 0 min 0 W/m 8,4 km/h (2 Bft) 7,14 %
13.08.2016 04:06 15,7 C 15,0 C 13,3 C 95 % 15 lf 1021,1 hPa 0,0 l/m 0 min 0 min 0 W/m 4,2 km/h (1 Bft) 4,76 %
13.08.2016 04:08 15,7 C 15,0 C 13,3 C 95 % 15 lf 1021,1 hPa 0,0 l/m 0 min 0 min 0 W/m 4,2 km/h (1 Bft) 4,76 %
13.08.2016 04:10 15,7 C 15,6 C 13,3 C 95 % 15 lf 1021,0 hPa 0,0 l/m 0 min 0 min 0 W/m 6,3 km/h (2 Bft) 91,67 %
13.08.2016 04:12 15,7 C 15,6 C 13,3 C 95 % 15 lf 1021,1 hPa 0,0 l/m 0 min 0 min 0 W/m 8,4 km/h (2 Bft) 95,74 %
13.08.2016 04:14 15,6 C 15,6 C 13,3 C 95 % 15 lf 1021,1 hPa 0,0 l/m 0 min 0 min 0 W/m 10,5 km/h (2 Bft) 95,65 %
13.08.2016 04:16 15,7 C 15,6 C 13,3 C 95 % 15 lf 1021,0 hPa 0,0 l/m 0 min 0 min 0 W/m 10,5 km/h (2 Bft) 97,87 %
13.08.2016 04:18 15,7 C 15,6 C 13,3 C 95 % 15 lf 1021,0 hPa 0,0 l/m 0 min 0 min 0 W/m 10,5 km/h (2 Bft) 95,74 %
13.08.2016 04:20 15,7 C 15,6 C 13,3 C 95 % 15 lf 1021,0 hPa 0,0 l/m 0 min 0 min 0 W/m 8,4 km/h (2 Bft) 97,87 %
13.08.2016 04:22 15,7 C 15,6 C 13,3 C 95 % 15 lf 1021,0 hPa 0,0 l/m 0 min 0 min 0 W/m 6,3 km/h (2 Bft) 95,74 %
13.08.2016 04:24 15,7 C 15,6 C 13,3 C 95 % 15 lf 1021,1 hPa 0,0 l/m 0 min 0 min 0 W/m 12,6 km/h (3 Bft) 95,74 %
13.08.2016 04:26 15,7 C 15,6 C 13,3 C 95 % 15 lf 1021,0 hPa 0,0 l/m 0 min 0 min 0 W/m 8,4 km/h (2 Bft) 97,87 %
13.08.2016 04:28 15,7 C 15,6 C 13,9 C 95 % 15 lf 1021,1 hPa 0,0 l/m 0 min 0 min 0 W/m 8,4 km/h (2 Bft) 97,83 %
13.08.2016 04:30 15,7 C 15,6 C 13,3 C 95 % 15 lf 1021,1 hPa 0,0 l/m 0 min 0 min 0 W/m 6,3 km/h (2 Bft) 93,62 %
13.08.2016 04:32 15,7 C 15,6 C 13,9 C 95 % 15 lf 1021,0 hPa 0,0 l/m 0 min 0 min 0 W/m 10,5 km/h (2 Bft) 91,49 %
13.08.2016 04:34 15,7 C 15,6 C 13,3 C 96 % 15 lf 1021,0 hPa 0,0 l/m 0 min 0 min 0 W/m 6,3 km/h (2 Bft) 97,87 %
13.08.2016 04:36 15,7 C 15,6 C 13,3 C 96 % 15 lf 1021,0 hPa 0,0 l/m 0 min 0 min 0 W/m 8,4 km/h (2 Bft) 95,74 %
13.08.2016 04:38 15,7 C 15,6 C 13,9 C 96 % 15 lf 1021,0 hPa 0,0 l/m 0 min 0 min 0 W/m 10,5 km/h (2 Bft) 93,48 %
13.08.2016 04:40 15,7 C 15,6 C 13,3 C 96 % 15 lf 1021,0 hPa 0,0 l/m 0 min 0 min 0 W/m 6,3 km/h (2 Bft) 97,87 %
13.08.2016 04:42 15,7 C 15,6 C 13,3 C 96 % 15 lf 1021,0 hPa 0,0 l/m 0 min 0 min 0 W/m 8,4 km/h (2 Bft) 95,74 %
13.08.2016 04:44 15,7 C 15,6 C 13,9 C 96 % 15 lf 1021,0 hPa 0,0 l/m 0 min 0 min 0 W/m 12,6 km/h (3 Bft) 95,74 %
13.08.2016 04:46 15,7 C 15,6 C 13,9 C 96 % 15 lf 1020,9 hPa 0,0 l/m 0 min 0 min 0 W/m 10,5 km/h (2 Bft) 95,74 %
13.08.2016 04:48 15,7 C 15,6 C 13,3 C 96 % 15 lf 1020,9 hPa 0,0 l/m 0 min 0 min 0 W/m 10,5 km/h (2 Bft) 97,87 %
13.08.2016 04:50 15,7 C 15,6 C 13,3 C 96 % 15 lf 1020,9 hPa 0,0 l/m 0 min 0 min 0 W/m 12,6 km/h (3 Bft) 97,83 %
13.08.2016 04:52 15,7 C 15,6 C 13,9 C 96 % 15 lf 1020,9 hPa 0,0 l/m 0 min 0 min 0 W/m 10,5 km/h (2 Bft) 97,87 %
13.08.2016 04:54 15,8 C 15,6 C 13,9 C 96 % 15 lf 1020,9 hPa 0,0 l/m 0 min 0 min 0 W/m 8,4 km/h (2 Bft) 93,62 %
13.08.2016 04:56 15,7 C 15,6 C 13,9 C 96 % 15 lf 1020,8 hPa 0,0 l/m 0 min 0 min 0 W/m 10,5 km/h (2 Bft) 93,62 %
13.08.2016 04:58 15,7 C 15,6 C 13,9 C 96 % 15 lf 1020,9 hPa 0,0 l/m 0 min 0 min 0 W/m 14,6 km/h (3 Bft) 97,87 %
13.08.2016 05:00 15,8 C 15,6 C 13,9 C 96 % 15 lf 1020,9 hPa 0,0 l/m 0 min 0 min 0 W/m 10,5 km/h (2 Bft) 97,87 %
13.08.2016 05:02 15,8 C 15,6 C 13,9 C 96 % 15 lf 1020,9 hPa 0,0 l/m 0 min 0 min 0 W/m 12,6 km/h (3 Bft) 93,48 %
13.08.2016 05:04 15,8 C 15,6 C 13,9 C 96 % 15 lf 1020,9 hPa 0,0 l/m 0 min 0 min 0 W/m 18,8 km/h (3 Bft) 97,87 %
13.08.2016 05:06 15,8 C 15,6 C 13,9 C 96 % 15 lf 1020,9 hPa 0,0 l/m 0 min 0 min 0 W/m 10,5 km/h (2 Bft) 97,87 %
13.08.2016 05:08 15,8 C 15,6 C 13,9 C 96 % 15 lf 1020,9 hPa 0,0 l/m 0 min 0 min 0 W/m 10,5 km/h (2 Bft) 97,87 %
13.08.2016 05:10 15,8 C 15,6 C 13,9 C 96 % 15 lf 1020,9 hPa 0,0 l/m 0 min 0 min 0 W/m 6,3 km/h (2 Bft) 95,74 %
13.08.2016 05:12 15,8 C 15,6 C 13,3 C 96 % 15 lf 1020,9 hPa 0,0 l/m 0 min 0 min 0 W/m 6,3 km/h (2 Bft) 97,87 %
13.08.2016 05:14 15,8 C 15,6 C 13,3 C 96 % 15 lf 1020,9 hPa 0,0 l/m 0 min 0 min 0 W/m 8,4 km/h (2 Bft) 100,00 %
13.08.2016 05:16 15,8 C 15,6 C 13,3 C 96 % 15 lf 1020,9 hPa 0,0 l/m 0 min 0 min 0 W/m 8,4 km/h (2 Bft) 95,74 %
13.08.2016 05:18 15,8 C 15,6 C 13,3 C 96 % 15 lf 1020,9 hPa 0,0 l/m 0 min 0 min 0 W/m 12,6 km/h (3 Bft) 100,00 %
13.08.2016 05:20 15,8 C 15,6 C 13,3 C 96 % 15 lf 1020,9 hPa 0,0 l/m 0 min 0 min 0 W/m 10,5 km/h (2 Bft) 100,00 %
13.08.2016 05:22 15,8 C 15,6 C 13,3 C 96 % 15 lf 1020,9 hPa 0,0 l/m 0 min 0 min 0 W/m 6,3 km/h (2 Bft) 97,87 %
13.08.2016 05:24 15,7 C 15,6 C 13,3 C 96 % 15 lf 1020,9 hPa 0,0 l/m 0 min 0 min 0 W/m 10,5 km/h (2 Bft) 93,62 %
13.08.2016 05:26 15,7 C 15,6 C 13,3 C 96 % 15 lf 1020,9 hPa 0,0 l/m 0 min 0 min 0 W/m 10,5 km/h (2 Bft) 97,83 %
13.08.2016 05:28 15,7 C 15,6 C 13,3 C 96 % 15 lf 1020,9 hPa 0,0 l/m 0 min 0 min 0 W/m 10,5 km/h (2 Bft) 97,87 %
13.08.2016 05:30 15,7 C 15,6 C 13,9 C 96 % 15 lf 1020,9 hPa 0,0 l/m 0 min 0 min 0 W/m 10,5 km/h (2 Bft) 97,87 %
13.08.2016 05:32 15,7 C 15,6 C 13,9 C 96 % 15 lf 1020,9 hPa 0,0 l/m 0 min 0 min 0 W/m 10,5 km/h (2 Bft) 97,87 %
13.08.2016 05:34 15,7 C 15,6 C 13,9 C 96 % 15 lf 1020,9 hPa 0,0 l/m 0 min 0 min 0 W/m 12,6 km/h (3 Bft) 95,74 %
13.08.2016 05:36 15,7 C 15,6 C 13,9 C 96 % 15 lf 1020,9 hPa 0,0 l/m 0 min 0 min 0 W/m 14,6 km/h (3 Bft) 95,74 %
13.08.2016 05:38 15,7 C 15,6 C 13,9 C 96 % 15 lf 1020,9 hPa 0,0 l/m 0 min 0 min 0 W/m 12,6 km/h (3 Bft) 97,83 %
13.08.2016 05:40 15,7 C 15,6 C 13,9 C 96 % 15 lf 1020,8 hPa 0,0 l/m 0 min 0 min 0 W/m 12,6 km/h (3 Bft) 97,87 %
13.08.2016 05:42 15,7 C 15,6 C 13,9 C 96 % 15 lf 1020,9 hPa 0,0 l/m 0 min 0 min 0 W/m 12,6 km/h (3 Bft) 97,87 %
13.08.2016 05:44 15,7 C 15,6 C 13,3 C 96 % 15 lf 1020,9 hPa 0,0 l/m 0 min 0 min 0 W/m 8,4 km/h (2 Bft) 95,74 %
13.08.2016 05:46 15,7 C 15,6 C 13,3 C 96 % 15 lf 1020,9 hPa 0,0 l/m 0 min 0 min 0 W/m 8,4 km/h (2 Bft) 97,87 %
13.08.2016 05:48 15,6 C 15,0 C 13,3 C 96 % 15 lf 1020,9 hPa 0,0 l/m 0 min 0 min 0 W/m 10,5 km/h (2 Bft) 97,87 %
13.08.2016 05:50 15,6 C 15,0 C 13,3 C 96 % 15 lf 1020,9 hPa 0,0 l/m 0 min 0 min 0 W/m 12,6 km/h (3 Bft) 93,48 %
13.08.2016 05:52 15,6 C 15,6 C 13,3 C 96 % 15 lf 1020,8 hPa 0,0 l/m 0 min 0 min 0 W/m 14,6 km/h (3 Bft) 95,74 %
13.08.2016 05:54 15,6 C 15,0 C 13,3 C 96 % 15 lf 1020,9 hPa 0,0 l/m 0 min 0 min 0 W/m 12,6 km/h (3 Bft) 97,87 %
13.08.2016 05:56 15,6 C 15,0 C 13,3 C 96 % 15 lf 1020,9 hPa 0,0 l/m 0 min 0 min 0 W/m 12,6 km/h (3 Bft) 95,74 %
13.08.2016 05:58 15,6 C 15,0 C 13,3 C 96 % 15 lf 1020,9 hPa 0,0 l/m 0 min 0 min 4 W/m 8,4 km/h (2 Bft) 97,87 %
13.08.2016 06:00 15,5 C 15,0 C 13,3 C 96 % 15 lf 1020,9 hPa 0,0 l/m 0 min 0 min 5 W/m 10,5 km/h (2 Bft) 95,65 %
13.08.2016 06:02 15,5 C 15,0 C 13,3 C 96 % 15 lf 1020,8 hPa 0,0 l/m 0 min 0 min 5 W/m 12,6 km/h (3 Bft) 97,87 %
13.08.2016 06:04 15,5 C 15,0 C 13,3 C 96 % 15 lf 1020,9 hPa 0,0 l/m 0 min 0 min 5 W/m 10,5 km/h (2 Bft) 93,75 %
13.08.2016 06:06 15,4 C 15,0 C 13,3 C 96 % 15 lf 1020,9 hPa 0,0 l/m 0 min 0 min 5 W/m 10,5 km/h (2 Bft) 95,74 %
13.08.2016 06:08 15,4 C 15,0 C 13,3 C 96 % 15 lf 1020,8 hPa 0,0 l/m 0 min 0 min 6 W/m 12,6 km/h (3 Bft) 95,74 %
13.08.2016 06:10 15,4 C 15,0 C 13,3 C 96 % 15 lf 1020,8 hPa 0,0 l/m 0 min 0 min 7 W/m 14,6 km/h (3 Bft) 93,62 %
13.08.2016 06:12 15,3 C 15,0 C 13,3 C 96 % 14 lf 1020,8 hPa 0,0 l/m 0 min 0 min 7 W/m 12,6 km/h (3 Bft) 97,83 %
13.08.2016 06:14 15,3 C 15,0 C 13,3 C 96 % 13 lf 1020,8 hPa 0,0 l/m 0 min 0 min 7 W/m 14,6 km/h (3 Bft) 95,74 %
13.08.2016 06:16 15,2 C 15,0 C 13,3 C 96 % 12 lf 1020,9 hPa 0,0 l/m 0 min 0 min 9 W/m 14,6 km/h (3 Bft) 97,87 %
13.08.2016 06:18 15,2 C 15,6 C 13,3 C 96 % 9 lf 1021,0 hPa 0,0 l/m 0 min 0 min 9 W/m 14,6 km/h (3 Bft) 100,00 %
13.08.2016 06:20 15,1 C 15,0 C 13,3 C 96 % 6 lf 1021,1 hPa 0,0 l/m 0 min 0 min 10 W/m 14,6 km/h (3 Bft) 100,00 %
13.08.2016 06:22 15,1 C 15,0 C 13,3 C 96 % 4 lf 1021,1 hPa 0,0 l/m 0 min 0 min 11 W/m 10,5 km/h (2 Bft) 100,00 %
13.08.2016 06:24 15,0 C 15,0 C 13,3 C 96 % 4 lf 1021,1 hPa 0,0 l/m 0 min 0 min 11 W/m 10,5 km/h (2 Bft) 97,83 %
13.08.2016 06:26 14,9 C 15,0 C 13,3 C 96 % 4 lf 1021,1 hPa 0,0 l/m 0 min 0 min 12 W/m 14,6 km/h (3 Bft) 95,74 %
13.08.2016 06:28 14,9 C 15,0 C 12,8 C 96 % 4 lf 1021,2 hPa 0,0 l/m 0 min 0 min 13 W/m 10,5 km/h (2 Bft) 93,62 %
13.08.2016 06:30 14,9 C 15,0 C 13,3 C 95 % 3 lf 1021,2 hPa 0,0 l/m 0 min 0 min 14 W/m 12,6 km/h (3 Bft) 100,00 %
13.08.2016 06:32 14,8 C 15,0 C 12,8 C 95 % 3 lf 1021,1 hPa 0,0 l/m 0 min 0 min 16 W/m 14,6 km/h (3 Bft) 97,87 %
13.08.2016 06:34 14,8 C 15,0 C 12,8 C 95 % 3 lf 1021,1 hPa 0,0 l/m 0 min 0 min 16 W/m 10,5 km/h (2 Bft) 95,74 %
13.08.2016 06:36 14,8 C 15,0 C 12,8 C 95 % 3 lf 1021,1 hPa 0,0 l/m 0 min 0 min 18 W/m 12,6 km/h (3 Bft) 100,00 %
13.08.2016 06:38 14,8 C 15,0 C 12,8 C 95 % 3 lf 1021,1 hPa 0,0 l/m 2 min 0 min 19 W/m 12,6 km/h (3 Bft) 97,87 %
13.08.2016 06:40 14,8 C 15,0 C 12,8 C 95 % 3 lf 1021,2 hPa 0,0 l/m 2 min 0 min 25 W/m 12,6 km/h (3 Bft) 97,87 %
13.08.2016 06:42 14,7 C 15,0 C 12,8 C 95 % 3 lf 1021,1 hPa 0,0 l/m 2 min 0 min 25 W/m 16,7 km/h (3 Bft) 97,87 %
13.08.2016 06:44 14,7 C 15,0 C 13,3 C 95 % 3 lf 1021,1 hPa 0,0 l/m 2 min 0 min 27 W/m 12,6 km/h (3 Bft) 91,49 %
13.08.2016 06:46 14,7 C 15,0 C 13,3 C 95 % 3 lf 1021,1 hPa 0,0 l/m 2 min 0 min 35 W/m 10,5 km/h (2 Bft) 91,49 %
13.08.2016 06:48 14,7 C 15,0 C 13,3 C 95 % 3 lf 1021,1 hPa 0,0 l/m 2 min 0 min 36 W/m 12,6 km/h (3 Bft) 93,48 %
13.08.2016 06:50 14,7 C 15,0 C 13,3 C 95 % 3 lf 1021,1 hPa 0,0 l/m 2 min 0 min 37 W/m 10,5 km/h (2 Bft) 91,49 %
13.08.2016 06:52 14,7 C 15,0 C 13,3 C 95 % 3 lf 1021,1 hPa 0,0 l/m 2 min 0 min 41 W/m 14,6 km/h (3 Bft) 95,92 %
13.08.2016 06:54 14,7 C 15,0 C 13,3 C 94 % 3 lf 1021,2 hPa 0,0 l/m 2 min 0 min 44 W/m 12,6 km/h (3 Bft) 94,74 %
13.08.2016 06:56 14,7 C 15,0 C 13,3 C 94 % 3 lf 1021,2 hPa 0,0 l/m 2 min 0 min 47 W/m 8,4 km/h (2 Bft) 91,49 %
13.08.2016 06:58 14,7 C 15,0 C 13,3 C 94 % 3 lf 1021,2 hPa 0,0 l/m 2 min 0 min 52 W/m 12,6 km/h (3 Bft) 91,49 %
13.08.2016 07:00 14,7 C 15,0 C 12,8 C 94 % 3 lf 1021,2 hPa 0,0 l/m 2 min 0 min 54 W/m 12,6 km/h (3 Bft) 93,62 %
13.08.2016 07:02 14,8 C 15,0 C 13,3 C 94 % 3 lf 1021,2 hPa 0,0 l/m 2 min 0 min 58 W/m 10,5 km/h (2 Bft) 89,13 %
13.08.2016 07:04 14,8 C 15,0 C 13,3 C 94 % 3 lf 1021,2 hPa 0,0 l/m 2 min 0 min 62 W/m 10,5 km/h (2 Bft) 93,62 %
13.08.2016 07:06 14,8 C 15,0 C 13,3 C 94 % 3 lf 1021,2 hPa 0,0 l/m 2 min 0 min 66 W/m 12,6 km/h (3 Bft) 93,62 %
13.08.2016 07:08 14,8 C 15,0 C 13,3 C 94 % 3 lf 1021,2 hPa 0,0 l/m 2 min 0 min 69 W/m 12,6 km/h (3 Bft) 93,62 %
13.08.2016 07:10 14,8 C 15,0 C 13,3 C 94 % 3 lf 1021,2 hPa 0,0 l/m 2 min 0 min 73 W/m 12,6 km/h (3 Bft) 93,62 %
13.08.2016 07:12 14,8 C 15,0 C 13,3 C 94 % 3 lf 1021,2 hPa 0,0 l/m 2 min 0 min 77 W/m 14,6 km/h (3 Bft) 97,83 %
13.08.2016 07:14 14,8 C 15,0 C 13,3 C 94 % 3 lf 1021,2 hPa 0,0 l/m 2 min 0 min 81 W/m 12,6 km/h (3 Bft) 89,36 %
13.08.2016 07:16 14,8 C 15,0 C 13,3 C 94 % 3 lf 1021,2 hPa 0,0 l/m 2 min 0 min 88 W/m 16,7 km/h (3 Bft) 93,62 %
13.08.2016 07:18 14,8 C 15,0 C 13,3 C 94 % 3 lf 1021,2 hPa 0,0 l/m 2 min 0 min 92 W/m 12,6 km/h (3 Bft) 89,36 %
13.08.2016 07:20 14,8 C 15,6 C 13,3 C 94 % 3 lf 1021,3 hPa 0,0 l/m 2 min 0 min 97 W/m 14,6 km/h (3 Bft) 95,74 %
13.08.2016 07:22 14,9 C 15,6 C 13,3 C 94 % 3 lf 1021,2 hPa 0,0 l/m 2 min 0 min 102 W/m 14,6 km/h (3 Bft) 91,49 %
13.08.2016 07:24 14,9 C 15,6 C 13,3 C 94 % 3 lf 1021,2 hPa 0,0 l/m 2 min 0 min 108 W/m 14,6 km/h (3 Bft) 93,48 %
13.08.2016 07:26 14,9 C 15,6 C 13,3 C 94 % 2 lf 1021,2 hPa 0,0 l/m 2 min 0 min 114 W/m 14,6 km/h (3 Bft) 93,62 %
13.08.2016 07:28 14,9 C 15,6 C 13,3 C 94 % 2 lf 1021,3 hPa 0,0 l/m 2 min 0 min 119 W/m 14,6 km/h (3 Bft) 95,74 %
13.08.2016 07:30 14,9 C 15,6 C 13,3 C 94 % 2 lf 1021,3 hPa 0,0 l/m 2 min 0 min 122 W/m 14,6 km/h (3 Bft) 91,49 %
13.08.2016 07:32 14,9 C 15,6 C 13,3 C 94 % 2 lf 1021,3 hPa 0,0 l/m 2 min 0 min 124 W/m 8,4 km/h (2 Bft) 93,62 %
13.08.2016 07:34 14,9 C 15,6 C 13,9 C 94 % 2 lf 1021,3 hPa 0,0 l/m 2 min 0 min 132 W/m 16,7 km/h (3 Bft) 91,49 %
13.08.2016 07:36 14,9 C 15,6 C 13,9 C 93 % 2 lf 1021,2 hPa 0,0 l/m 2 min 0 min 139 W/m 10,5 km/h (2 Bft) 95,65 %
13.08.2016 07:38 14,9 C 15,6 C 13,9 C 93 % 2 lf 1021,2 hPa 0,0 l/m 2 min 0 min 148 W/m 14,6 km/h (3 Bft) 97,87 %
13.08.2016 07:40 14,9 C 15,6 C 13,9 C 93 % 2 lf 1021,3 hPa 0,0 l/m 2 min 0 min 155 W/m 14,6 km/h (3 Bft) 97,87 %
13.08.2016 07:42 14,9 C 15,6 C 13,9 C 93 % 1 lf 1021,4 hPa 0,0 l/m 2 min 0 min 159 W/m 20,9 km/h (4 Bft) 97,87 %
13.08.2016 07:44 14,9 C 15,6 C 13,9 C 93 % 1 lf 1021,4 hPa 0,0 l/m 2 min 0 min 165 W/m 14,6 km/h (3 Bft) 95,74 %
13.08.2016 07:46 14,9 C 15,6 C 13,9 C 93 % 1 lf 1021,4 hPa 0,0 l/m 2 min 0 min 171 W/m 16,7 km/h (3 Bft) 93,62 %
13.08.2016 07:48 14,9 C 16,1 C 13,9 C 93 % 1 lf 1021,3 hPa 0,0 l/m 2 min 0 min 177 W/m 14,6 km/h (3 Bft) 97,83 %
13.08.2016 07:50 15,0 C 16,1 C 13,9 C 93 % 1 lf 1021,3 hPa 0,0 l/m 2 min 0 min 180 W/m 18,8 km/h (3 Bft) 97,87 %
13.08.2016 07:52 15,0 C 16,1 C 13,9 C 92 % 1 lf 1021,3 hPa 0,0 l/m 2 min 0 min 186 W/m 10,5 km/h (2 Bft) 97,87 %
13.08.2016 07:54 15,1 C 16,1 C 13,9 C 92 % 1 lf 1021,3 hPa 0,0 l/m 2 min 0 min 193 W/m 16,7 km/h (3 Bft) 93,62 %
13.08.2016 07:56 15,1 C 16,1 C 13,9 C 92 % 1 lf 1021,3 hPa 0,0 l/m 2 min 0 min 204 W/m 25,1 km/h (4 Bft) 100,00 %
13.08.2016 07:58 15,1 C 16,1 C 13,9 C 92 % 1 lf 1021,3 hPa 0,0 l/m 2 min 0 min 207 W/m 25,1 km/h (4 Bft) 97,87 %
13.08.2016 08:00 15,2 C 16,1 C 14,4 C 92 % 1 lf 1021,3 hPa 0,0 l/m 2 min 0 min 206 W/m 20,9 km/h (4 Bft) 100,00 %
13.08.2016 08:02 15,2 C 16,1 C 14,4 C 91 % 1 lf 1021,3 hPa 0,0 l/m 2 min 0 min 197 W/m 16,7 km/h (3 Bft) 95,74 %
13.08.2016 08:04 15,2 C 16,1 C 14,4 C 92 % 1 lf 1021,3 hPa 0,0 l/m 2 min 0 min 161 W/m 14,6 km/h (3 Bft) 97,87 %
13.08.2016 08:06 15,3 C 16,1 C 14,4 C 91 % 1 lf 1021,3 hPa 0,0 l/m 2 min 0 min 180 W/m 18,8 km/h (3 Bft) 97,87 %
13.08.2016 08:08 15,3 C 16,1 C 14,4 C 91 % 1 lf 1021,3 hPa 0,0 l/m 2 min 0 min 205 W/m 16,7 km/h (3 Bft) 100,00 %
13.08.2016 08:10 15,3 C 16,1 C 14,4 C 91 % 1 lf 1021,4 hPa 0,0 l/m 2 min 0 min 218 W/m 18,8 km/h (3 Bft) 97,83 %
13.08.2016 08:12 15,4 C 16,1 C 14,4 C 91 % 1 lf 1021,4 hPa 0,0 l/m 2 min 0 min 244 W/m 16,7 km/h (3 Bft) 100,00 %
13.08.2016 08:14 15,4 C 16,7 C 14,4 C 91 % 1 lf 1021,4 hPa 0,0 l/m 2 min 0 min 253 W/m 18,8 km/h (3 Bft) 100,00 %
13.08.2016 08:16 15,5 C 16,7 C 14,4 C 91 % 1 lf 1021,4 hPa 0,0 l/m 2 min 0 min 261 W/m 16,7 km/h (3 Bft) 100,00 %
13.08.2016 08:18 15,5 C 16,7 C 14,4 C 91 % 1 lf 1021,5 hPa 0,0 l/m 2 min 0 min 268 W/m 16,7 km/h (3 Bft) 100,00 %
13.08.2016 08:20 15,6 C 16,7 C 14,4 C 91 % 1 lf 1021,4 hPa 0,0 l/m 2 min 0 min 274 W/m 20,9 km/h (4 Bft) 93,62 %
13.08.2016 08:22 15,6 C 16,7 C 14,4 C 91 % 1 lf 1021,5 hPa 0,0 l/m 2 min 0 min 277 W/m 20,9 km/h (4 Bft) 95,65 %
13.08.2016 08:24 15,7 C 16,7 C 14,4 C 91 % 1 lf 1021,5 hPa 0,0 l/m 2 min 0 min 278 W/m 23,0 km/h (4 Bft) 93,62 %
13.08.2016 08:26 15,7 C 16,7 C 15,0 C 91 % 1 lf 1021,4 hPa 0,0 l/m 2 min 0 min 296 W/m 23,0 km/h (4 Bft) 97,87 %
13.08.2016 08:28 15,7 C 16,7 C 15,0 C 90 % 1 lf 1021,4 hPa 0,0 l/m 2 min 0 min 298 W/m 20,9 km/h (4 Bft) 91,49 %
13.08.2016 08:30 15,8 C 16,7 C 15,0 C 90 % 1 lf 1021,4 hPa 0,0 l/m 2 min 0 min 304 W/m 20,9 km/h (4 Bft) 97,87 %
13.08.2016 08:32 15,8 C 16,7 C 15,0 C 90 % 1 lf 1021,4 hPa 0,0 l/m 2 min 0 min 307 W/m 20,9 km/h (4 Bft) 95,74 %
13.08.2016 08:34 15,8 C 16,7 C 15,0 C 90 % 1 lf 1021,5 hPa 0,0 l/m 2 min 0 min 298 W/m 18,8 km/h (3 Bft) 93,62 %
13.08.2016 08:36 15,9 C 17,2 C 15,0 C 91 % 1 lf 1021,4 hPa 0,0 l/m 2 min 0 min 295 W/m 20,9 km/h (4 Bft) 93,48 %
13.08.2016 08:38 15,9 C 17,2 C 15,0 C 91 % 1 lf 1021,4 hPa 0,0 l/m 2 min 0 min 321 W/m 18,8 km/h (3 Bft) 95,74 %
13.08.2016 08:40 15,9 C 17,2 C 15,0 C 90 % 1 lf 1021,5 hPa 0,0 l/m 2 min 0 min 330 W/m 23,0 km/h (4 Bft) 93,62 %
13.08.2016 08:42 16,0 C 17,2 C 15,0 C 90 % 1 lf 1021,5 hPa 0,0 l/m 2 min 0 min 327 W/m 20,9 km/h (4 Bft) 91,49 %
13.08.2016 08:44 16,1 C 17,2 C 15,0 C 90 % 1 lf 1021,5 hPa 0,0 l/m 2 min 0 min 326 W/m 25,1 km/h (4 Bft) 95,74 %
13.08.2016 08:46 16,1 C 17,2 C 15,0 C 90 % 1 lf 1021,6 hPa 0,0 l/m 2 min 0 min 350 W/m 23,0 km/h (4 Bft) 93,48 %
13.08.2016 08:48 16,1 C 17,2 C 15,0 C 90 % 1 lf 1021,6 hPa 0,0 l/m 2 min 0 min 348 W/m 20,9 km/h (4 Bft) 95,74 %
13.08.2016 08:50 16,2 C 17,8 C 15,0 C 90 % 1 lf 1021,7 hPa 0,0 l/m 2 min 0 min 381 W/m 18,8 km/h (3 Bft) 95,74 %
13.08.2016 08:52 16,2 C 17,8 C 15,0 C 90 % 1 lf 1021,6 hPa 0,0 l/m 2 min 0 min 343 W/m 14,6 km/h (3 Bft) 95,74 %
13.08.2016 08:54 16,2 C 18,3 C 15,6 C 90 % 1 lf 1021,6 hPa 0,0 l/m 2 min 0 min 365 W/m 23,0 km/h (4 Bft) 95,74 %
13.08.2016 08:56 16,3 C 19,4 C 15,6 C 90 % 1 lf 1021,6 hPa 0,0 l/m 2 min 0 min 394 W/m 20,9 km/h (4 Bft) 95,74 %
13.08.2016 08:58 16,3 C 20,6 C 15,6 C 90 % 1 lf 1021,6 hPa 0,0 l/m 2 min 0 min 387 W/m 14,6 km/h (3 Bft) 95,65 %
13.08.2016 09:00 16,4 C 20,6 C 15,6 C 90 % 1 lf 1021,6 hPa 0,0 l/m 2 min 0 min 396 W/m 14,6 km/h (3 Bft) 89,36 %
13.08.2016 09:02 16,4 C 20,6 C 15,6 C 90 % 1 lf 1021,5 hPa 0,0 l/m 2 min 0 min 404 W/m 18,8 km/h (3 Bft) 95,74 %
13.08.2016 09:04 16,5 C 20,0 C 15,6 C 90 % 1 lf 1021,6 hPa 0,0 l/m 2 min 0 min 398 W/m 23,0 km/h (4 Bft) 93,62 %
13.08.2016 09:06 16,6 C 21,1 C 16,1 C 90 % 1 lf 1021,5 hPa 0,0 l/m 2 min 0 min 410 W/m 20,9 km/h (4 Bft) 93,62 %
13.08.2016 09:08 16,7 C 22,8 C 16,1 C 90 % 1 lf 1021,5 hPa 0,0 l/m 2 min 0 min 427 W/m 16,7 km/h (3 Bft) 97,87 %
13.08.2016 09:10 16,8 C 23,3 C 16,1 C 90 % 1 lf 1021,6 hPa 0,0 l/m 2 min 0 min 452 W/m 25,1 km/h (4 Bft) 97,83 %
13.08.2016 09:12 16,8 C 24,4 C 16,1 C 89 % 1 lf 1021,6 hPa 0,0 l/m 2 min 0 min 470 W/m 25,1 km/h (4 Bft) 97,87 %
13.08.2016 09:14 16,9 C 25,0 C 16,1 C 89 % 1 lf 1021,6 hPa 0,0 l/m 2 min 0 min 392 W/m 27,2 km/h (4 Bft) 100,00 %
13.08.2016 09:16 16,9 C 23,9 C 16,1 C 89 % 1 lf 1021,6 hPa 0,0 l/m 2 min 0 min 343 W/m 20,9 km/h (4 Bft) 97,87 %
13.08.2016 09:18 17,1 C 23,9 C 16,1 C 89 % 1 lf 1021,5 hPa 0,0 l/m 2 min 0 min 357 W/m 20,9 km/h (4 Bft) 95,74 %
13.08.2016 09:20 17,1 C 24,4 C 16,7 C 88 % 0 lf 1021,6 hPa 0,0 l/m 2 min 0 min 435 W/m 18,8 km/h (3 Bft) 97,87 %
13.08.2016 09:22 17,2 C 25,0 C 16,7 C 88 % 0 lf 1021,6 hPa 0,0 l/m 2 min 0 min 493 W/m 16,7 km/h (3 Bft) 97,83 %
13.08.2016 09:24 17,3 C 25,6 C 16,7 C 88 % 0 lf 1021,5 hPa 0,0 l/m 2 min 0 min 507 W/m 20,9 km/h (4 Bft) 95,74 %
13.08.2016 09:26 17,4 C 25,0 C 16,7 C 88 % 0 lf 1021,6 hPa 0,0 l/m 2 min 0 min 467 W/m 18,8 km/h (3 Bft) 100,00 %
13.08.2016 09:28 17,5 C 25,6 C 17,2 C 88 % 0 lf 1021,5 hPa 0,0 l/m 2 min 0 min 472 W/m 14,6 km/h (3 Bft) 100,00 %
13.08.2016 09:30 17,6 C 25,0 C 17,2 C 88 % 0 lf 1021,5 hPa 0,0 l/m 2 min 0 min 487 W/m 14,6 km/h (3 Bft) 100,00 %
13.08.2016 09:32 17,7 C 25,6 C 17,2 C 88 % 0 lf 1021,6 hPa 0,0 l/m 2 min 0 min 444 W/m 20,9 km/h (4 Bft) 100,00 %
13.08.2016 09:34 17,8 C 23,9 C 17,2 C 87 % 0 lf 1021,6 hPa 0,0 l/m 2 min 0 min 419 W/m 25,1 km/h (4 Bft) 97,83 %
13.08.2016 09:36 17,9 C 25,0 C 17,2 C 87 % 0 lf 1021,6 hPa 0,0 l/m 2 min 0 min 405 W/m 18,8 km/h (3 Bft) 100,00 %
13.08.2016 09:38 17,9 C 25,0 C 17,2 C 87 % 0 lf 1021,6 hPa 0,0 l/m 2 min 0 min 424 W/m 18,8 km/h (3 Bft) 97,87 %
13.08.2016 09:40 18,0 C 23,9 C 17,2 C 86 % 0 lf 1021,6 hPa 0,0 l/m 2 min 0 min 379 W/m 16,7 km/h (3 Bft) 97,87 %
13.08.2016 09:42 18,1 C 24,4 C 17,8 C 86 % 0 lf 1021,6 hPa 0,0 l/m 2 min 0 min 463 W/m 18,8 km/h (3 Bft) 97,87 %
13.08.2016 09:44 18,2 C 25,6 C 18,3 C 86 % 0 lf 1021,6 hPa 0,0 l/m 2 min 0 min 532 W/m 14,6 km/h (3 Bft) 97,87 %
13.08.2016 09:46 18,2 C 25,6 C 18,3 C 86 % 0 lf 1021,6 hPa 0,0 l/m 2 min 0 min 483 W/m 16,7 km/h (3 Bft) 93,48 %
13.08.2016 09:48 18,3 C 25,6 C 18,9 C 86 % 0 lf 1021,7 hPa 0,0 l/m 2 min 0 min 488 W/m 14,6 km/h (3 Bft) 95,74 %
13.08.2016 09:50 18,4 C 25,0 C 20,0 C 86 % 0 lf 1021,6 hPa 0,0 l/m 2 min 0 min 506 W/m 14,6 km/h (3 Bft) 95,74 %
13.08.2016 09:52 18,5 C 25,0 C 20,6 C 86 % 0 lf 1021,6 hPa 0,0 l/m 2 min 0 min 560 W/m 16,7 km/h (3 Bft) 97,87 %
13.08.2016 09:54 18,6 C 25,0 C 21,7 C 86 % 0 lf 1021,6 hPa 0,0 l/m 2 min 0 min 579 W/m 14,6 km/h (3 Bft) 93,62 %
13.08.2016 09:56 18,7 C 25,6 C 21,7 C 85 % 0 lf 1021,7 hPa 0,0 l/m 2 min 0 min 566 W/m 16,7 km/h (3 Bft) 95,65 %
13.08.2016 09:58 18,8 C 26,1 C 21,7 C 85 % 0 lf 1021,6 hPa 0,0 l/m 2 min 0 min 587 W/m 20,9 km/h (4 Bft) 95,74 %
13.08.2016 10:00 18,9 C 26,7 C 21,7 C 85 % 0 lf 1021,6 hPa 0,0 l/m 2 min 0 min 549 W/m 23,0 km/h (4 Bft) 97,87 %
13.08.2016 10:02 18,9 C 26,1 C 21,7 C 84 % 0 lf 1021,6 hPa 0,0 l/m 2 min 0 min 478 W/m 18,8 km/h (3 Bft) 97,87 %
13.08.2016 10:04 19,0 C 25,6 C 21,1 C 84 % 0 lf 1021,5 hPa 0,0 l/m 2 min 0 min 368 W/m 12,6 km/h (3 Bft) 97,87 %
13.08.2016 10:06 19,1 C 25,0 C 21,1 C 84 % 0 lf 1021,5 hPa 0,0 l/m 2 min 0 min 363 W/m 12,6 km/h (3 Bft) 97,87 %
13.08.2016 10:08 19,1 C 23,9 C 20,6 C 84 % 0 lf 1021,5 hPa 0,0 l/m 2 min 0 min 395 W/m 20,9 km/h (4 Bft) 91,30 %
13.08.2016 10:10 19,1 C 23,3 C 20,6 C 84 % 0 lf 1021,4 hPa 0,0 l/m 2 min 0 min 361 W/m 14,6 km/h (3 Bft) 97,87 %
13.08.2016 10:12 19,1 C 22,8 C 20,0 C 84 % 0 lf 1021,5 hPa 0,0 l/m 2 min 0 min 335 W/m 16,7 km/h (3 Bft) 93,62 %
13.08.2016 10:14 19,1 C 22,2 C 20,0 C 83 % 0 lf 1021,5 hPa 0,0 l/m 2 min 0 min 345 W/m 14,6 km/h (3 Bft) 97,87 %
13.08.2016 10:16 19,1 C 22,2 C 19,4 C 83 % 0 lf 1021,5 hPa 0,0 l/m 2 min 0 min 293 W/m 25,1 km/h (4 Bft) 91,49 %
13.08.2016 10:18 19,0 C 21,1 C 18,9 C 83 % 0 lf 1021,5 hPa 0,0 l/m 0 min 0 min 238 W/m 20,9 km/h (4 Bft) 95,74 %
13.08.2016 10:20 18,9 C 21,1 C 18,3 C 83 % 0 lf 1021,5 hPa 0,0 l/m 0 min 0 min 264 W/m 23,0 km/h (4 Bft) 93,48 %
13.08.2016 10:22 18,9 C 22,8 C 19,4 C 83 % 0 lf 1021,6 hPa 0,0 l/m 2 min 0 min 370 W/m 16,7 km/h (3 Bft) 95,74 %
13.08.2016 10:24 18,9 C 24,4 C 20,6 C 84 % 0 lf 1021,6 hPa 0,0 l/m 2 min 0 min 402 W/m 12,6 km/h (3 Bft) 95,74 %
13.08.2016 10:26 18,9 C 25,0 C 20,0 C 84 % 0 lf 1021,6 hPa 0,0 l/m 2 min 0 min 515 W/m 12,6 km/h (3 Bft) 89,36 %
13.08.2016 10:28 18,9 C 23,9 C 20,6 C 84 % 0 lf 1021,6 hPa 0,0 l/m 2 min 0 min 385 W/m 16,7 km/h (3 Bft) 95,74 %
13.08.2016 10:30 18,9 C 23,9 C 20,6 C 84 % 0 lf 1021,5 hPa 0,0 l/m 2 min 0 min 336 W/m 18,8 km/h (3 Bft) 93,62 %
13.08.2016 10:32 18,9 C 24,4 C 21,1 C 84 % 0 lf 1021,5 hPa 0,0 l/m 2 min 0 min 507 W/m 23,0 km/h (4 Bft) 97,83 %
13.08.2016 10:34 18,9 C 24,4 C 22,2 C 84 % 0 lf 1021,4 hPa 0,0 l/m 2 min 0 min 643 W/m 20,9 km/h (4 Bft) 95,74 %
13.08.2016 10:36 19,0 C 26,1 C 23,3 C 85 % 0 lf 1021,5 hPa 0,0 l/m 2 min 0 min 671 W/m 12,6 km/h (3 Bft) 95,74 %
13.08.2016 10:38 19,1 C 27,8 C 23,9 C 85 % 0 lf 1021,5 hPa 0,0 l/m 2 min 0 min 654 W/m 12,6 km/h (3 Bft) 93,62 %
13.08.2016 10:40 19,2 C 28,9 C 25,0 C 86 % 0 lf 1021,4 hPa 0,0 l/m 2 min 0 min 696 W/m 10,5 km/h (2 Bft) 95,74 %
13.08.2016 10:42 19,3 C 28,3 C 25,6 C 86 % 0 lf 1021,4 hPa 0,0 l/m 2 min 0 min 719 W/m 20,9 km/h (4 Bft) 95,74 %
13.08.2016 10:44 19,4 C 27,8 C 25,0 C 85 % 0 lf 1021,5 hPa 0,0 l/m 2 min 0 min 726 W/m 18,8 km/h (3 Bft) 95,65 %
13.08.2016 10:46 19,6 C 29,4 C 25,0 C 85 % 0 lf 1021,5 hPa 0,0 l/m 2 min 0 min 767 W/m 14,6 km/h (3 Bft) 95,74 %
13.08.2016 10:48 19,7 C 29,4 C 25,0 C 85 % 0 lf 1021,4 hPa 0,0 l/m 2 min 0 min 769 W/m 14,6 km/h (3 Bft) 95,74 %
13.08.2016 10:50 19,9 C 30,0 C 26,1 C 84 % 0 lf 1021,3 hPa 0,0 l/m 2 min 0 min 766 W/m 12,6 km/h (3 Bft) 93,62 %
13.08.2016 10:52 20,0 C 31,1 C 25,6 C 84 % 0 lf 1021,3 hPa 0,0 l/m 2 min 0 min 843 W/m 10,5 km/h (2 Bft) 95,74 %
13.08.2016 10:54 20,2 C 31,7 C 25,6 C 84 % 0 lf 1021,3 hPa 0,0 l/m 2 min 0 min 410 W/m 16,7 km/h (3 Bft) 95,74 %
13.08.2016 10:56 20,2 C 29,4 C 24,4 C 83 % 0 lf 1021,4 hPa 0,0 l/m 2 min 0 min 410 W/m 16,7 km/h (3 Bft) 95,65 %
13.08.2016 10:58 20,3 C 27,2 C 23,3 C 82 % 0 lf 1021,4 hPa 0,0 l/m 2 min 0 min 402 W/m 18,8 km/h (3 Bft) 91,49 %
13.08.2016 11:00 20,3 C 26,1 C 22,8 C 82 % 0 lf 1021,6 hPa 0,0 l/m 2 min 0 min 328 W/m 14,6 km/h (3 Bft) 95,74 %
13.08.2016 11:02 20,3 C 26,7 C 22,8 C 82 % 0 lf 1021,5 hPa 0,0 l/m 2 min 0 min 406 W/m 12,6 km/h (3 Bft) 93,62 %
13.08.2016 11:04 20,3 C 26,7 C 23,3 C 82 % 0 lf 1021,5 hPa 0,0 l/m 2 min 0 min 427 W/m 16,7 km/h (3 Bft) 95,74 %
13.08.2016 11:06 20,4 C 25,6 C 23,3 C 82 % 0 lf 1021,5 hPa 0,0 l/m 2 min 0 min 427 W/m 14,6 km/h (3 Bft) 91,30 %
13.08.2016 11:08 20,4 C 25,0 C 22,2 C 82 % 0 lf 1021,6 hPa 0,0 l/m 0 min 0 min 302 W/m 16,7 km/h (3 Bft) 93,62 %
13.08.2016 11:10 20,4 C 25,0 C 22,8 C 83 % 0 lf 1021,6 hPa 0,0 l/m 0 min 0 min 272 W/m 16,7 km/h (3 Bft) 95,74 %
13.08.2016 11:12 20,4 C 25,0 C 22,2 C 82 % 0 lf 1021,8 hPa 0,0 l/m 2 min 0 min 340 W/m 23,0 km/h (4 Bft) 95,74 %
13.08.2016 11:14 20,4 C 25,6 C 22,2 C 81 % 0 lf 1021,7 hPa 0,0 l/m 2 min 0 min 360 W/m 27,2 km/h (4 Bft) 97,87 %
13.08.2016 11:16 20,4 C 25,0 C 22,2 C 81 % 0 lf 1021,6 hPa 0,0 l/m 2 min 0 min 538 W/m 20,9 km/h (4 Bft) 95,74 %
13.08.2016 11:18 20,4 C 25,0 C 22,2 C 81 % 0 lf 1021,5 hPa 0,0 l/m 2 min 0 min 486 W/m 20,9 km/h (4 Bft) 95,74 %
13.08.2016 11:20 20,4 C 23,3 C 21,7 C 81 % 0 lf 1021,5 hPa 0,0 l/m 2 min 0 min 342 W/m 16,7 km/h (3 Bft) 93,48 %
13.08.2016 11:22 20,4 C 22,8 C 21,1 C 81 % 0 lf 1021,6 hPa 0,0 l/m 0 min 0 min 329 W/m 18,8 km/h (3 Bft) 100,00 %
13.08.2016 11:24 20,3 C 22,2 C 21,1 C 81 % 0 lf 1021,6 hPa 0,0 l/m 0 min 0 min 303 W/m 20,9 km/h (4 Bft) 100,00 %
13.08.2016 11:26 20,3 C 23,3 C 22,2 C 81 % 0 lf 1021,6 hPa 0,0 l/m 0 min 0 min 323 W/m 18,8 km/h (3 Bft) 95,74 %
13.08.2016 11:28 20,3 C 23,3 C 22,2 C 81 % 0 lf 1021,6 hPa 0,0 l/m 2 min 0 min 491 W/m 23,0 km/h (4 Bft) 97,87 %
13.08.2016 11:30 20,3 C 23,3 C 21,7 C 81 % 0 lf 1021,5 hPa 0,0 l/m 2 min 0 min 363 W/m 25,1 km/h (4 Bft) 95,65 %
13.08.2016 11:32 20,2 C 23,3 C 21,7 C 81 % 0 lf 1021,5 hPa 0,0 l/m 0 min 0 min 314 W/m 16,7 km/h (3 Bft) 93,62 %
13.08.2016 11:34 20,2 C 23,9 C 21,1 C 81 % 0 lf 1021,5 hPa 0,0 l/m 2 min 0 min 353 W/m 18,8 km/h (3 Bft) 97,87 %
13.08.2016 11:36 20,2 C 25,0 C 22,2 C 81 % 0 lf 1021,5 hPa 0,0 l/m 2 min 0 min 479 W/m 14,6 km/h (3 Bft) 95,74 %
13.08.2016 11:38 20,2 C 26,1 C 22,8 C 82 % 0 lf 1021,5 hPa 0,0 l/m 2 min 0 min 549 W/m 14,6 km/h (3 Bft) 95,74 %
13.08.2016 11:40 20,3 C 27,8 C 24,4 C 82 % 0 lf 1021,5 hPa 0,0 l/m 2 min 0 min 572 W/m 16,7 km/h (3 Bft) 95,74 %
13.08.2016 11:42 20,4 C 28,9 C 25,0 C 82 % 0 lf 1021,5 hPa 0,0 l/m 2 min 0 min 729 W/m 25,1 km/h (4 Bft) 95,65 %
13.08.2016 11:44 20,4 C 28,3 C 23,9 C 82 % 0 lf 1021,4 hPa 0,0 l/m 2 min 0 min 485 W/m 25,1 km/h (4 Bft) 95,74 %
13.08.2016 11:46 20,4 C 25,6 C 22,8 C 81 % 0 lf 1021,5 hPa 0,0 l/m 2 min 0 min 379 W/m 23,0 km/h (4 Bft) 97,87 %
13.08.2016 11:48 20,4 C 27,2 C 23,9 C 81 % 0 lf 1021,5 hPa 0,0 l/m 2 min 0 min 559 W/m 20,9 km/h (4 Bft) 95,74 %
13.08.2016 11:50 20,5 C 26,7 C 23,9 C 81 % 0 lf 1021,5 hPa 0,0 l/m 2 min 0 min 1007 W/m 20,9 km/h (4 Bft) 95,74 %
13.08.2016 11:52 20,6 C 27,2 C 23,3 C 81 % 0 lf 1021,5 hPa 0,0 l/m 2 min 0 min 1007 W/m 18,8 km/h (3 Bft) 95,74 %
13.08.2016 11:54 20,6 C 25,0 C 22,8 C 80 % 0 lf 1021,5 hPa 0,0 l/m 2 min 0 min 753 W/m 25,1 km/h (4 Bft) 97,83 %
13.08.2016 11:56 20,6 C 27,2 C 22,8 C 80 % 0 lf 1021,4 hPa 0,0 l/m 2 min 0 min 494 W/m 16,7 km/h (3 Bft) 97,87 %
13.08.2016 11:58 20,6 C 27,8 C 24,4 C 80 % 0 lf 1021,4 hPa 0,0 l/m 2 min 0 min 847 W/m 14,6 km/h (3 Bft) 95,74 %
13.08.2016 12:00 20,7 C 28,3 C 25,6 C 80 % 0 lf 1021,5 hPa 0,0 l/m 2 min 0 min 897 W/m 23,0 km/h (4 Bft) 97,87 %
13.08.2016 12:02 20,7 C 28,9 C 25,0 C 80 % 0 lf 1021,5 hPa 0,0 l/m 2 min 0 min 909 W/m 18,8 km/h (3 Bft) 95,74 %
13.08.2016 12:06 20,9 C 29,4 C 25,6 C 79 % 0 lf 1021,5 hPa 0,0 l/m 2 min 0 min 865 W/m 23,0 km/h (4 Bft) 95,74 %
13.08.2016 12:08 21,0 C 30,6 C 25,6 C 80 % 0 lf 1021,6 hPa 0,0 l/m 2 min 0 min 599 W/m 16,7 km/h (3 Bft) 91,49 %
13.08.2016 12:10 21,1 C 28,9 C 25,6 C 79 % 0 lf 1021,4 hPa 0,0 l/m 2 min 0 min 599 W/m 18,8 km/h (3 Bft) 97,87 %
13.08.2016 12:12 21,2 C 28,3 C 25,0 C 79 % 0 lf 1021,5 hPa 0,0 l/m 2 min 0 min 521 W/m 18,8 km/h (3 Bft) 97,87 %
13.08.2016 12:14 21,2 C 29,4 C 25,0 C 78 % 0 lf 1021,5 hPa 0,0 l/m 2 min 0 min 474 W/m 23,0 km/h (4 Bft) 97,87 %
13.08.2016 12:16 21,3 C 30,6 C 25,6 C 78 % 0 lf 1021,5 hPa 0,0 l/m 2 min 0 min 429 W/m 18,8 km/h (3 Bft) 95,65 %
13.08.2016 12:18 21,3 C 29,4 C 25,0 C 77 % 0 lf 1021,5 hPa 0,0 l/m 0 min 0 min 353 W/m 25,1 km/h (4 Bft) 95,74 %
13.08.2016 12:20 21,3 C 27,2 C 23,9 C 77 % 0 lf 1021,5 hPa 0,0 l/m 0 min 0 min 347 W/m 20,9 km/h (4 Bft) 93,62 %
13.08.2016 12:22 21,3 C 27,2 C 24,4 C 76 % 0 lf 1021,6 hPa 0,0 l/m 0 min 0 min 285 W/m 18,8 km/h (3 Bft) 97,87 %
13.08.2016 12:24 21,4 C 28,9 C 25,6 C 77 % 0 lf 1021,7 hPa 0,0 l/m 0 min 0 min 285 W/m 25,1 km/h (4 Bft) 91,49 %
13.08.2016 12:26 21,5 C 28,9 C 26,1 C 77 % 0 lf 1021,6 hPa 0,0 l/m 2 min 0 min 580 W/m 12,6 km/h (3 Bft) 93,62 %
13.08.2016 12:28 21,6 C 28,9 C 26,1 C 77 % 0 lf 1021,5 hPa 0,0 l/m 2 min 0 min 946 W/m 20,9 km/h (4 Bft) 95,74 %
13.08.2016 12:30 21,6 C 29,4 C 25,0 C 76 % 0 lf 1021,6 hPa 0,0 l/m 2 min 0 min 956 W/m 25,1 km/h (4 Bft) 97,83 %
13.08.2016 12:32 21,6 C 27,8 C 25,0 C 76 % 0 lf 1021,7 hPa 0,0 l/m 2 min 0 min 897 W/m 23,0 km/h (4 Bft) 97,87 %
13.08.2016 12:34 21,6 C 28,9 C 25,6 C 76 % 0 lf 1021,6 hPa 0,0 l/m 2 min 0 min 778 W/m 31,4 km/h (5 Bft) 97,87 %
13.08.2016 12:36 21,6 C 29,4 C 25,0 C 75 % 0 lf 1021,6 hPa 0,0 l/m 2 min 0 min 603 W/m 25,1 km/h (4 Bft) 97,87 %
13.08.2016 12:38 21,7 C 30,6 C 24,4 C 76 % 0 lf 1021,6 hPa 0,0 l/m 2 min 0 min 540 W/m 18,8 km/h (3 Bft) 97,87 %
13.08.2016 12:40 21,8 C 30,6 C 24,4 C 77 % 0 lf 1021,7 hPa 0,0 l/m 2 min 0 min 578 W/m 25,1 km/h (4 Bft) 95,65 %
13.08.2016 12:42 21,8 C 30,6 C 24,4 C 76 % 0 lf 1021,6 hPa 0,0 l/m 2 min 0 min 594 W/m 16,7 km/h (3 Bft) 95,74 %
13.08.2016 12:44 21,8 C 28,9 C 23,9 C 75 % 0 lf 1021,7 hPa 0,0 l/m 2 min 0 min 594 W/m 25,1 km/h (4 Bft) 91,49 %
13.08.2016 12:46 21,8 C 28,9 C 23,3 C 74 % 0 lf 1021,7 hPa 0,0 l/m 2 min 0 min 594 W/m 20,9 km/h (4 Bft) 91,49 %
13.08.2016 12:48 21,8 C 28,9 C 23,3 C 75 % 0 lf 1021,7 hPa 0,0 l/m 2 min 0 min 932 W/m 23,0 km/h (4 Bft) 97,87 %
13.08.2016 12:50 21,8 C 29,4 C 23,3 C 74 % 0 lf 1021,7 hPa 0,0 l/m 2 min 0 min 916 W/m 25,1 km/h (4 Bft) 97,87 %
13.08.2016 12:52 21,9 C 30,6 C 23,3 C 74 % 0 lf 1021,7 hPa 0,0 l/m 2 min 0 min 871 W/m 20,9 km/h (4 Bft) 97,83 %
13.08.2016 12:54 21,9 C 29,4 C 22,8 C 74 % 0 lf 1021,7 hPa 0,0 l/m 2 min 0 min 849 W/m 20,9 km/h (4 Bft) 97,87 %
13.08.2016 12:56 21,9 C 29,4 C 23,3 C 74 % 0 lf 1021,7 hPa 0,0 l/m 2 min 0 min 860 W/m 18,8 km/h (3 Bft) 93,62 %
13.08.2016 12:58 21,9 C 29,4 C 23,3 C 74 % 0 lf 1021,7 hPa 0,0 l/m 2 min 0 min 871 W/m 23,0 km/h (4 Bft) 97,87 %
13.08.2016 13:00 21,9 C 28,9 C 23,3 C 73 % 0 lf 1021,7 hPa 0,0 l/m 2 min 0 min 803 W/m 20,9 km/h (4 Bft) 93,62 %
13.08.2016 13:02 21,9 C 30,6 C 24,4 C 73 % 0 lf 1021,7 hPa 0,0 l/m 2 min 0 min 808 W/m 16,7 km/h (3 Bft) 95,74 %
13.08.2016 13:04 22,0 C 30,6 C 24,4 C 73 % 0 lf 1021,7 hPa 0,0 l/m 2 min 0 min 895 W/m 25,1 km/h (4 Bft) 97,83 %
13.08.2016 13:06 22,0 C 30,6 C 25,0 C 74 % 0 lf 1021,8 hPa 0,0 l/m 2 min 0 min 903 W/m 23,0 km/h (4 Bft) 97,87 %
13.08.2016 13:08 22,1 C 30,0 C 25,0 C 74 % 0 lf 1021,8 hPa 0,0 l/m 2 min 0 min 927 W/m 25,1 km/h (4 Bft) 93,62 %
13.08.2016 13:10 22,2 C 31,1 C 25,0 C 74 % 0 lf 1021,8 hPa 0,0 l/m 2 min 0 min 879 W/m 16,7 km/h (3 Bft) 97,87 %
13.08.2016 13:12 22,2 C 28,9 C 23,9 C 73 % 0 lf 1021,8 hPa 0,0 l/m 2 min 0 min 821 W/m 27,2 km/h (4 Bft) 95,74 %
13.08.2016 13:14 22,2 C 29,4 C 23,9 C 73 % 0 lf 1021,8 hPa 0,0 l/m 2 min 0 min 934 W/m 25,1 km/h (4 Bft) 93,62 %
13.08.2016 13:16 22,2 C 29,4 C 23,3 C 73 % 0 lf 1021,8 hPa 0,0 l/m 2 min 0 min 940 W/m 25,1 km/h (4 Bft) 97,83 %
13.08.2016 13:18 22,2 C 28,3 C 23,3 C 73 % 0 lf 1021,9 hPa 0,0 l/m 2 min 0 min 830 W/m 23,0 km/h (4 Bft) 95,74 %
13.08.2016 13:20 22,1 C 27,2 C 22,8 C 73 % 0 lf 1021,9 hPa 0,0 l/m 2 min 0 min 700 W/m 18,8 km/h (3 Bft) 93,62 %
13.08.2016 13:22 22,1 C 28,9 C 22,8 C 73 % 0 lf 1021,9 hPa 0,0 l/m 2 min 0 min 769 W/m 16,7 km/h (3 Bft) 95,74 %
13.08.2016 13:24 22,1 C 28,9 C 22,8 C 73 % 0 lf 1021,9 hPa 0,0 l/m 2 min 0 min 918 W/m 25,1 km/h (4 Bft) 93,62 %
13.08.2016 13:26 22,1 C 30,0 C 23,3 C 73 % 0 lf 1021,8 hPa 0,0 l/m 2 min 0 min 923 W/m 27,2 km/h (4 Bft) 95,74 %
13.08.2016 13:28 22,1 C 29,4 C 23,3 C 72 % 0 lf 1021,9 hPa 0,0 l/m 2 min 0 min 949 W/m 29,3 km/h (5 Bft) 95,65 %
13.08.2016 13:30 22,1 C 27,8 C 22,8 C 72 % 0 lf 1021,9 hPa 0,0 l/m 2 min 0 min 918 W/m 25,1 km/h (4 Bft) 89,36 %
13.08.2016 13:32 22,0 C 30,0 C 23,3 C 72 % 0 lf 1021,9 hPa 0,0 l/m 2 min 0 min 958 W/m 20,9 km/h (4 Bft) 95,74 %
13.08.2016 13:34 22,1 C 30,0 C 23,9 C 73 % 0 lf 1021,8 hPa 0,0 l/m 2 min 0 min 1005 W/m 18,8 km/h (3 Bft) 95,74 %
13.08.2016 13:36 22,2 C 30,6 C 24,4 C 73 % 0 lf 1021,8 hPa 0,0 l/m 2 min 0 min 1048 W/m 16,7 km/h (3 Bft) 95,74 %
13.08.2016 13:38 22,2 C 29,4 C 23,9 C 72 % 0 lf 1021,7 hPa 0,0 l/m 2 min 0 min 1048 W/m 14,6 km/h (3 Bft) 93,62 %
13.08.2016 13:40 22,3 C 30,0 C 23,9 C 73 % 0 lf 1021,7 hPa 0,0 l/m 2 min 0 min 1048 W/m 18,8 km/h (3 Bft) 95,65 %
13.08.2016 13:42 22,4 C 30,6 C 23,9 C 73 % 0 lf 1021,7 hPa 0,0 l/m 2 min 0 min 1081 W/m 23,0 km/h (4 Bft) 97,87 %
13.08.2016 13:44 22,4 C 30,0 C 23,3 C 72 % 0 lf 1021,7 hPa 0,0 l/m 2 min 0 min 1573 W/m 25,1 km/h (4 Bft) 95,74 %
13.08.2016 13:46 22,4 C 31,1 C 23,3 C 72 % 0 lf 1021,7 hPa 0,0 l/m 2 min 0 min 1518 W/m 14,6 km/h (3 Bft) 93,62 %
13.08.2016 13:48 22,4 C 31,7 C 23,3 C 72 % 0 lf 1021,7 hPa 0,0 l/m 2 min 0 min 1461 W/m 18,8 km/h (3 Bft) 93,62 %
13.08.2016 13:50 22,4 C 31,7 C 22,8 C 71 % 0 lf 1021,8 hPa 0,0 l/m 2 min 0 min 1490 W/m 16,7 km/h (3 Bft) 97,83 %
13.08.2016 13:52 22,5 C 31,7 C 23,9 C 71 % 0 lf 1021,7 hPa 0,0 l/m 2 min 0 min 1472 W/m 20,9 km/h (4 Bft) 95,74 %
13.08.2016 13:54 22,6 C 28,9 C 23,9 C 72 % 0 lf 1021,8 hPa 0,0 l/m 2 min 0 min 1413 W/m 16,7 km/h (3 Bft) 89,36 %
13.08.2016 13:56 22,5 C 27,2 C 22,8 C 71 % 0 lf 1021,8 hPa 0,0 l/m 0 min 0 min 304 W/m 20,9 km/h (4 Bft) 95,74 %
13.08.2016 13:58 22,5 C 28,9 C 23,3 C 72 % 0 lf 1021,8 hPa 0,0 l/m 2 min 0 min 703 W/m 16,7 km/h (3 Bft) 95,74 %
13.08.2016 14:00 22,6 C 30,6 C 23,9 C 73 % 0 lf 1021,8 hPa 0,0 l/m 2 min 0 min 1322 W/m 20,9 km/h (4 Bft) 97,87 %
13.08.2016 14:02 22,6 C 30,6 C 24,4 C 71 % 0 lf 1021,7 hPa 0,0 l/m 2 min 0 min 1345 W/m 16,7 km/h (3 Bft) 97,83 %
13.08.2016 14:04 22,7 C 31,7 C 24,4 C 72 % 0 lf 1021,7 hPa 0,0 l/m 2 min 0 min 1345 W/m 14,6 km/h (3 Bft) 97,87 %
13.08.2016 14:06 22,8 C 30,0 C 25,0 C 72 % 0 lf 1021,7 hPa 0,0 l/m 2 min 0 min 1230 W/m 18,8 km/h (3 Bft) 95,74 %
13.08.2016 14:08 22,8 C 28,9 C 25,0 C 71 % 0 lf 1021,7 hPa 0,0 l/m 2 min 0 min 424 W/m 25,1 km/h (4 Bft) 95,74 %
13.08.2016 14:10 22,9 C 29,4 C 25,6 C 71 % 0 lf 1021,7 hPa 0,0 l/m 2 min 0 min 482 W/m 12,6 km/h (3 Bft) 97,87 %
13.08.2016 14:12 22,9 C 30,0 C 26,7 C 71 % 0 lf 1021,7 hPa 0,0 l/m 2 min 0 min 1026 W/m 14,6 km/h (3 Bft) 97,87 %
13.08.2016 14:14 23,0 C 30,0 C 27,2 C 71 % 0 lf 1021,7 hPa 0,0 l/m 2 min 0 min 932 W/m 16,7 km/h (3 Bft) 100,00 %
13.08.2016 14:16 23,1 C 29,4 C 26,7 C 71 % 0 lf 1021,7 hPa 0,0 l/m 2 min 0 min 853 W/m 20,9 km/h (4 Bft) 97,87 %
13.08.2016 14:18 23,1 C 30,0 C 25,6 C 70 % 0 lf 1021,7 hPa 0,0 l/m 2 min 0 min 564 W/m 18,8 km/h (3 Bft) 97,87 %
13.08.2016 14:20 23,2 C 30,0 C 26,1 C 70 % 0 lf 1021,8 hPa 0,0 l/m 2 min 0 min 753 W/m 27,2 km/h (4 Bft) 95,74 %
13.08.2016 14:22 23,2 C 29,4 C 26,7 C 70 % 0 lf 1021,7 hPa 0,0 l/m 2 min 0 min 930 W/m 18,8 km/h (3 Bft) 100,00 %
13.08.2016 14:24 23,1 C 27,2 C 25,0 C 69 % 0 lf 1021,7 hPa 0,0 l/m 0 min 0 min 304 W/m 27,2 km/h (4 Bft) 100,00 %
13.08.2016 14:26 23,0 C 26,7 C 24,4 C 70 % 0 lf 1021,7 hPa 0,0 l/m 0 min 0 min 363 W/m 27,2 km/h (4 Bft) 95,65 %
13.08.2016 14:28 22,9 C 26,1 C 23,9 C 70 % 0 lf 1021,7 hPa 0,0 l/m 0 min 0 min 306 W/m 12,6 km/h (3 Bft) 100,00 %
13.08.2016 14:30 22,8 C 25,0 C 23,3 C 70 % 0 lf 1021,8 hPa 0,0 l/m 0 min 0 min 298 W/m 20,9 km/h (4 Bft) 95,74 %
13.08.2016 14:32 22,7 C 26,7 C 24,4 C 71 % 0 lf 1021,7 hPa 0,0 l/m 0 min 0 min 339 W/m 12,6 km/h (3 Bft) 97,87 %
13.08.2016 14:34 22,7 C 28,9 C 27,2 C 72 % 0 lf 1021,6 hPa 0,0 l/m 2 min 0 min 846 W/m 14,6 km/h (3 Bft) 97,87 %
13.08.2016 14:36 22,8 C 30,0 C 29,4 C 72 % 0 lf 1021,6 hPa 0,0 l/m 2 min 0 min 962 W/m 18,8 km/h (3 Bft) 100,00 %
13.08.2016 14:38 22,9 C 31,7 C 30,6 C 72 % 0 lf 1021,6 hPa 0,0 l/m 2 min 0 min 982 W/m 16,7 km/h (3 Bft) 100,00 %
13.08.2016 14:40 23,0 C 31,7 C 31,1 C 71 % 0 lf 1021,6 hPa 0,0 l/m 2 min 0 min 936 W/m 20,9 km/h (4 Bft) 91,49 %
13.08.2016 14:42 23,1 C 31,1 C 31,1 C 72 % 0 lf 1021,7 hPa 0,0 l/m 2 min 0 min 922 W/m 14,6 km/h (3 Bft) 95,74 %
13.08.2016 14:44 23,2 C 31,1 C 30,6 C 71 % 0 lf 1021,7 hPa 0,0 l/m 2 min 0 min 861 W/m 18,8 km/h (3 Bft) 97,87 %
13.08.2016 14:46 23,3 C 32,2 C 30,6 C 72 % 0 lf 1021,7 hPa 0,0 l/m 2 min 0 min 814 W/m 12,6 km/h (3 Bft) 97,87 %
13.08.2016 14:48 23,4 C 31,7 C 30,6 C 71 % 0 lf 1021,7 hPa 0,0 l/m 2 min 0 min 863 W/m 16,7 km/h (3 Bft) 97,87 %
13.08.2016 14:50 23,5 C 31,7 C 30,6 C 71 % 0 lf 1021,7 hPa 0,0 l/m 2 min 0 min 844 W/m 20,9 km/h (4 Bft) 97,83 %
13.08.2016 14:52 23,6 C 32,2 C 30,0 C 69 % 0 lf 1021,8 hPa 0,0 l/m 2 min 0 min 864 W/m 18,8 km/h (3 Bft) 95,74 %
13.08.2016 14:54 23,6 C 30,6 C 28,3 C 69 % 0 lf 1021,7 hPa 0,0 l/m 2 min 0 min 886 W/m 20,9 km/h (4 Bft) 95,74 %
13.08.2016 14:56 23,6 C 28,9 C 26,1 C 68 % 0 lf 1021,8 hPa 0,0 l/m 2 min 0 min 459 W/m 18,8 km/h (3 Bft) 97,87 %
13.08.2016 14:58 23,5 C 27,2 C 24,4 C 68 % 0 lf 1021,7 hPa 0,0 l/m 0 min 0 min 329 W/m 18,8 km/h (3 Bft) 95,74 %
13.08.2016 15:00 23,4 C 26,7 C 24,4 C 69 % 0 lf 1021,6 hPa 0,0 l/m 0 min 0 min 302 W/m 23,0 km/h (4 Bft) 95,65 %
13.08.2016 15:02 23,3 C 27,2 C 25,6 C 69 % 0 lf 1021,6 hPa 0,0 l/m 0 min 0 min 287 W/m 16,7 km/h (3 Bft) 91,49 %
13.08.2016 15:04 23,3 C 28,3 C 26,7 C 70 % 0 lf 1021,6 hPa 0,0 l/m 0 min 0 min 335 W/m 14,6 km/h (3 Bft) 93,62 %
13.08.2016 15:06 23,3 C 28,9 C 26,7 C 70 % 0 lf 1021,6 hPa 0,0 l/m 2 min 0 min 744 W/m 18,8 km/h (3 Bft) 93,62 %
13.08.2016 15:08 23,2 C 26,7 C 24,4 C 68 % 0 lf 1021,6 hPa 0,0 l/m 0 min 0 min 308 W/m 23,0 km/h (4 Bft) 95,74 %
13.08.2016 15:10 23,1 C 27,8 C 25,6 C 69 % 0 lf 1021,7 hPa 0,0 l/m 0 min 0 min 250 W/m 18,8 km/h (3 Bft) 95,74 %
13.08.2016 15:12 23,1 C 28,3 C 26,1 C 69 % 0 lf 1021,7 hPa 0,0 l/m 0 min 0 min 250 W/m 14,6 km/h (3 Bft) 93,48 %
13.08.2016 15:14 23,0 C 26,7 C 24,4 C 70 % 0 lf 1021,6 hPa 0,0 l/m 0 min 0 min 231 W/m 20,9 km/h (4 Bft) 87,23 %
13.08.2016 15:16 22,9 C 26,1 C 23,9 C 69 % 0 lf 1021,5 hPa 0,0 l/m 0 min 0 min 278 W/m 14,6 km/h (3 Bft) 89,36 %
13.08.2016 15:18 22,9 C 27,2 C 24,4 C 69 % 0 lf 1021,5 hPa 0,0 l/m 2 min 0 min 388 W/m 16,7 km/h (3 Bft) 93,62 %
13.08.2016 15:20 22,8 C 26,7 C 25,0 C 71 % 0 lf 1021,5 hPa 0,0 l/m 2 min 0 min 417 W/m 16,7 km/h (3 Bft) 89,36 %
13.08.2016 15:22 22,8 C 26,1 C 23,9 C 70 % 0 lf 1021,5 hPa 0,0 l/m 0 min 0 min 249 W/m 16,7 km/h (3 Bft) 93,62 %
13.08.2016 15:24 22,8 C 25,6 C 23,3 C 71 % 0 lf 1021,5 hPa 0,0 l/m 0 min 0 min 258 W/m 16,7 km/h (3 Bft) 91,30 %
13.08.2016 15:26 22,7 C 25,6 C 23,3 C 70 % 0 lf 1021,6 hPa 0,0 l/m 0 min 0 min 300 W/m 16,7 km/h (3 Bft) 93,62 %
13.08.2016 15:28 22,7 C 25,0 C 22,8 C 70 % 0 lf 1021,6 hPa 0,0 l/m 0 min 0 min 291 W/m 14,6 km/h (3 Bft) 93,62 %
13.08.2016 15:30 22,6 C 26,1 C 24,4 C 70 % 0 lf 1021,5 hPa 0,0 l/m 0 min 0 min 281 W/m 12,6 km/h (3 Bft) 91,49 %
13.08.2016 15:32 22,6 C 26,7 C 24,4 C 71 % 0 lf 1021,5 hPa 0,0 l/m 0 min 0 min 285 W/m 16,7 km/h (3 Bft) 91,49 %
13.08.2016 15:34 22,6 C 26,1 C 23,3 C 71 % 0 lf 1021,5 hPa 0,0 l/m 0 min 0 min 275 W/m 23,0 km/h (4 Bft) 89,36 %
13.08.2016 15:36 22,6 C 26,7 C 24,4 C 71 % 0 lf 1021,5 hPa 0,0 l/m 2 min 0 min 403 W/m 14,6 km/h (3 Bft) 95,65 %
13.08.2016 15:38 22,6 C 27,8 C 26,1 C 72 % 0 lf 1021,5 hPa 0,0 l/m 2 min 0 min 731 W/m 14,6 km/h (3 Bft) 95,74 %
13.08.2016 15:40 22,7 C 29,4 C 27,8 C 72 % 0 lf 1021,5 hPa 0,0 l/m 2 min 0 min 718 W/m 12,6 km/h (3 Bft) 93,62 %
13.08.2016 15:42 22,8 C 30,6 C 28,9 C 74 % 0 lf 1021,5 hPa 0,0 l/m 2 min 0 min 717 W/m 18,8 km/h (3 Bft) 93,62 %
13.08.2016 15:44 22,9 C 31,1 C 30,6 C 72 % 0 lf 1021,5 hPa 0,0 l/m 2 min 0 min 773 W/m 14,6 km/h (3 Bft) 100,00 %
13.08.2016 15:46 23,0 C 30,0 C 29,4 C 72 % 0 lf 1021,5 hPa 0,0 l/m 2 min 0 min 767 W/m 16,7 km/h (3 Bft) 100,00 %
13.08.2016 15:48 23,1 C 30,0 C 28,3 C 70 % 0 lf 1021,5 hPa 0,0 l/m 0 min 0 min 327 W/m 16,7 km/h (3 Bft) 93,48 %
13.08.2016 15:50 23,1 C 29,4 C 27,2 C 71 % 0 lf 1021,5 hPa 0,0 l/m 0 min 0 min 337 W/m 14,6 km/h (3 Bft) 95,74 %
13.08.2016 15:52 23,2 C 30,6 C 28,9 C 71 % 0 lf 1021,5 hPa 0,0 l/m 2 min 0 min 622 W/m 14,6 km/h (3 Bft) 97,87 %
13.08.2016 15:54 23,3 C 29,4 C 28,9 C 69 % 0 lf 1021,5 hPa 0,0 l/m 2 min 0 min 789 W/m 14,6 km/h (3 Bft) 97,87 %
13.08.2016 15:56 23,4 C 29,4 C 29,4 C 69 % 0 lf 1021,4 hPa 0,0 l/m 2 min 0 min 801 W/m 25,1 km/h (4 Bft) 100,00 %
13.08.2016 15:58 23,4 C 28,9 C 27,8 C 69 % 0 lf 1021,5 hPa 0,0 l/m 2 min 0 min 694 W/m 16,7 km/h (3 Bft) 100,00 %
13.08.2016 16:00 23,5 C 27,8 C 26,7 C 69 % 0 lf 1021,4 hPa 0,0 l/m 0 min 0 min 275 W/m 14,6 km/h (3 Bft) 97,83 %
13.08.2016 16:02 23,5 C 27,8 C 27,2 C 68 % 0 lf 1021,4 hPa 0,0 l/m 0 min 0 min 287 W/m 14,6 km/h (3 Bft) 97,87 %
13.08.2016 16:04 23,5 C 27,2 C 25,6 C 68 % 0 lf 1021,3 hPa 0,0 l/m 0 min 0 min 288 W/m 14,6 km/h (3 Bft) 97,87 %
13.08.2016 16:06 23,5 C 26,7 C 25,0 C 67 % 0 lf 1021,4 hPa 0,0 l/m 0 min 0 min 313 W/m 16,7 km/h (3 Bft) 95,74 %
13.08.2016 16:08 23,5 C 26,7 C 25,0 C 68 % 0 lf 1021,4 hPa 0,0 l/m 0 min 0 min 327 W/m 14,6 km/h (3 Bft) 97,87 %
13.08.2016 16:10 23,4 C 27,2 C 25,6 C 69 % 0 lf 1021,3 hPa 0,0 l/m 2 min 0 min 348 W/m 10,5 km/h (2 Bft) 100,00 %
13.08.2016 16:12 23,5 C 28,3 C 26,7 C 70 % 0 lf 1021,4 hPa 0,0 l/m 2 min 0 min 434 W/m 12,6 km/h (3 Bft) 100,00 %
13.08.2016 16:14 23,5 C 27,8 C 26,7 C 69 % 0 lf 1021,4 hPa 0,0 l/m 2 min 0 min 600 W/m 14,6 km/h (3 Bft) 97,87 %
13.08.2016 16:16 23,6 C 28,3 C 26,1 C 69 % 0 lf 1021,4 hPa 0,0 l/m 2 min 0 min 452 W/m 10,5 km/h (2 Bft) 97,87 %
13.08.2016 16:18 23,6 C 28,3 C 27,2 C 69 % 0 lf 1021,3 hPa 0,0 l/m 2 min 0 min 371 W/m 16,7 km/h (3 Bft) 100,00 %
13.08.2016 16:20 23,6 C 28,3 C 26,7 C 69 % 0 lf 1021,4 hPa 0,0 l/m 2 min 0 min 622 W/m 18,8 km/h (3 Bft) 100,00 %
13.08.2016 16:22 23,6 C 27,8 C 25,6 C 69 % 0 lf 1021,3 hPa 0,0 l/m 2 min 0 min 323 W/m 18,8 km/h (3 Bft) 100,00 %
13.08.2016 16:24 23,6 C 26,1 C 24,4 C 68 % 0 lf 1021,3 hPa 0,0 l/m 0 min 0 min 256 W/m 16,7 km/h (3 Bft) 100,00 %
13.08.2016 16:26 23,6 C 25,0 C 23,9 C 68 % 0 lf 1021,4 hPa 0,0 l/m 0 min 0 min 244 W/m 14,6 km/h (3 Bft) 97,87 %
13.08.2016 16:28 23,5 C 25,0 C 23,9 C 68 % 0 lf 1021,4 hPa 0,0 l/m 0 min 0 min 259 W/m 14,6 km/h (3 Bft) 97,87 %
13.08.2016 16:30 23,4 C 25,0 C 23,9 C 69 % 0 lf 1021,3 hPa 0,0 l/m 0 min 0 min 260 W/m 14,6 km/h (3 Bft) 95,74 %
13.08.2016 16:32 23,4 C 25,6 C 23,9 C 69 % 0 lf 1021,4 hPa 0,0 l/m 0 min 0 min 274 W/m 12,6 km/h (3 Bft) 97,87 %
13.08.2016 16:34 23,4 C 26,1 C 23,9 C 69 % 0 lf 1021,3 hPa 0,0 l/m 0 min 0 min 279 W/m 10,5 km/h (2 Bft) 93,62 %
13.08.2016 16:36 23,4 C 25,6 C 23,9 C 70 % 0 lf 1021,3 hPa 0,0 l/m 0 min 0 min 262 W/m 18,8 km/h (3 Bft) 97,83 %
13.08.2016 16:38 23,3 C 25,6 C 23,3 C 70 % 0 lf 1021,4 hPa 0,0 l/m 0 min 0 min 227 W/m 16,7 km/h (3 Bft) 97,87 %
13.08.2016 16:40 23,3 C 25,0 C 22,8 C 69 % 0 lf 1021,3 hPa 0,0 l/m 0 min 0 min 224 W/m 18,8 km/h (3 Bft) 97,87 %
13.08.2016 16:42 23,3 C 25,0 C 23,3 C 70 % 0 lf 1021,4 hPa 0,0 l/m 0 min 0 min 234 W/m 18,8 km/h (3 Bft) 93,62 %
13.08.2016 16:44 23,2 C 25,0 C 23,3 C 70 % 0 lf 1021,4 hPa 0,0 l/m 0 min 0 min 264 W/m 14,6 km/h (3 Bft) 97,87 %
13.08.2016 16:46 23,2 C 25,0 C 23,3 C 70 % 0 lf 1021,4 hPa 0,0 l/m 0 min 0 min 291 W/m 18,8 km/h (3 Bft) 95,65 %
13.08.2016 16:48 23,2 C 26,1 C 23,3 C 70 % 0 lf 1021,4 hPa 0,0 l/m 2 min 0 min 420 W/m 16,7 km/h (3 Bft) 97,87 %
13.08.2016 16:50 23,1 C 27,2 C 24,4 C 70 % 0 lf 1021,3 hPa 0,0 l/m 2 min 0 min 670 W/m 8,4 km/h (2 Bft) 97,87 %
13.08.2016 16:52 23,2 C 28,3 C 25,6 C 72 % 0 lf 1021,3 hPa 0,0 l/m 2 min 0 min 316 W/m 12,6 km/h (3 Bft) 97,87 %
13.08.2016 16:54 23,2 C 27,8 C 25,6 C 71 % 0 lf 1021,3 hPa 0,0 l/m 2 min 0 min 338 W/m 12,6 km/h (3 Bft) 97,87 %
13.08.2016 16:56 23,2 C 26,7 C 24,4 C 71 % 0 lf 1021,3 hPa 0,0 l/m 2 min 0 min 307 W/m 27,2 km/h (4 Bft) 95,74 %
13.08.2016 16:58 23,2 C 26,1 C 23,9 C 70 % 0 lf 1021,3 hPa 0,0 l/m 0 min 0 min 249 W/m 20,9 km/h (4 Bft) 97,83 %
13.08.2016 17:00 23,2 C 25,6 C 23,9 C 69 % 0 lf 1021,2 hPa 0,0 l/m 0 min 0 min 244 W/m 12,6 km/h (3 Bft) 95,74 %
13.08.2016 17:02 23,2 C 25,6 C 23,3 C 69 % 0 lf 1021,3 hPa 0,0 l/m 0 min 0 min 225 W/m 18,8 km/h (3 Bft) 97,87 %
13.08.2016 17:04 23,2 C 25,0 C 23,3 C 69 % 0 lf 1021,2 hPa 0,0 l/m 0 min 0 min 220 W/m 18,8 km/h (3 Bft) 97,87 %
13.08.2016 17:06 23,2 C 25,6 C 23,3 C 70 % 0 lf 1021,2 hPa 0,0 l/m 0 min 0 min 226 W/m 12,6 km/h (3 Bft) 97,87 %
13.08.2016 17:08 23,2 C 25,6 C 23,3 C 69 % 0 lf 1021,1 hPa 0,0 l/m 0 min 0 min 266 W/m 10,5 km/h (2 Bft) 97,87 %
13.08.2016 17:10 23,2 C 25,6 C 23,3 C 70 % 0 lf 1021,3 hPa 0,0 l/m 2 min 0 min 273 W/m 14,6 km/h (3 Bft) 95,65 %
13.08.2016 17:12 23,2 C 26,1 C 23,9 C 70 % 0 lf 1021,3 hPa 0,0 l/m 0 min 0 min 269 W/m 14,6 km/h (3 Bft) 91,49 %
13.08.2016 17:14 23,2 C 25,6 C 23,9 C 71 % 0 lf 1021,2 hPa 0,0 l/m 0 min 0 min 264 W/m 16,7 km/h (3 Bft) 95,74 %
13.08.2016 17:16 23,2 C 25,0 C 23,9 C 70 % 0 lf 1021,2 hPa 0,0 l/m 0 min 0 min 243 W/m 14,6 km/h (3 Bft) 97,87 %
13.08.2016 17:18 23,2 C 25,0 C 23,3 C 71 % 0 lf 1021,2 hPa 0,0 l/m 0 min 0 min 237 W/m 14,6 km/h (3 Bft) 93,62 %
13.08.2016 17:20 23,2 C 25,0 C 23,3 C 71 % 0 lf 1021,2 hPa 0,0 l/m 2 min 0 min 308 W/m 12,6 km/h (3 Bft) 95,74 %
13.08.2016 17:22 23,2 C 25,6 C 23,9 C 71 % 0 lf 1021,3 hPa 0,0 l/m 2 min 0 min 322 W/m 16,7 km/h (3 Bft) 95,45 %
13.08.2016 17:24 23,2 C 25,6 C 23,9 C 70 % 0 lf 1021,2 hPa 0,0 l/m 2 min 0 min 538 W/m 18,8 km/h (3 Bft) 97,87 %
13.08.2016 17:26 23,2 C 26,7 C 23,9 C 71 % 0 lf 1021,2 hPa 0,0 l/m 2 min 0 min 526 W/m 18,8 km/h (3 Bft) 95,74 %
13.08.2016 17:28 23,2 C 26,7 C 23,3 C 71 % 0 lf 1021,2 hPa 0,0 l/m 2 min 0 min 505 W/m 20,9 km/h (4 Bft) 95,74 %
13.08.2016 17:30 23,3 C 26,1 C 23,3 C 71 % 0 lf 1021,2 hPa 0,0 l/m 2 min 0 min 291 W/m 16,7 km/h (3 Bft) 93,62 %
13.08.2016 17:32 23,3 C 26,1 C 23,3 C 71 % 0 lf 1021,2 hPa 0,0 l/m 2 min 0 min 378 W/m 12,6 km/h (3 Bft) 93,62 %
13.08.2016 17:34 23,3 C 26,7 C 23,9 C 71 % 0 lf 1021,2 hPa 0,0 l/m 2 min 0 min 542 W/m 10,5 km/h (2 Bft) 95,65 %
13.08.2016 17:36 23,3 C 26,1 C 23,9 C 71 % 0 lf 1021,1 hPa 0,0 l/m 2 min 0 min 535 W/m 10,5 km/h (2 Bft) 95,74 %
13.08.2016 17:38 23,4 C 26,1 C 23,9 C 71 % 0 lf 1021,1 hPa 0,0 l/m 2 min 0 min 245 W/m 10,5 km/h (2 Bft) 93,62 %
13.08.2016 17:40 23,4 C 25,6 C 23,3 C 70 % 0 lf 1021,2 hPa 0,0 l/m 0 min 0 min 238 W/m 12,6 km/h (3 Bft) 93,62 %
13.08.2016 17:42 23,4 C 25,6 C 23,3 C 70 % 0 lf 1021,3 hPa 0,0 l/m 0 min 0 min 227 W/m 12,6 km/h (3 Bft) 93,62 %
13.08.2016 17:44 23,4 C 25,0 C 23,3 C 70 % 0 lf 1021,2 hPa 0,0 l/m 2 min 0 min 262 W/m 12,6 km/h (3 Bft) 93,62 %
13.08.2016 17:46 23,4 C 25,0 C 23,3 C 71 % 0 lf 1021,2 hPa 0,0 l/m 2 min 0 min 266 W/m 10,5 km/h (2 Bft) 95,65 %
13.08.2016 17:48 23,4 C 25,0 C 23,3 C 71 % 0 lf 1021,3 hPa 0,0 l/m 2 min 0 min 272 W/m 16,7 km/h (3 Bft) 91,49 %
13.08.2016 17:50 23,4 C 25,6 C 23,3 C 70 % 0 lf 1021,2 hPa 0,0 l/m 2 min 0 min 323 W/m 14,6 km/h (3 Bft) 93,62 %
13.08.2016 17:52 23,4 C 25,6 C 23,3 C 70 % 0 lf 1021,2 hPa 0,0 l/m 2 min 0 min 520 W/m 23,0 km/h (4 Bft) 95,74 %
13.08.2016 17:54 23,4 C 25,6 C 23,3 C 70 % 0 lf 1021,3 hPa 0,0 l/m 2 min 0 min 594 W/m 12,6 km/h (3 Bft) 93,62 %
13.08.2016 17:56 23,4 C 25,6 C 23,3 C 70 % 0 lf 1021,3 hPa 0,0 l/m 2 min 0 min 342 W/m 18,8 km/h (3 Bft) 93,62 %
13.08.2016 17:58 23,4 C 25,0 C 22,8 C 69 % 0 lf 1021,3 hPa 0,0 l/m 2 min 0 min 226 W/m 20,9 km/h (4 Bft) 97,83 %
13.08.2016 18:00 23,4 C 24,4 C 22,8 C 69 % 0 lf 1021,2 hPa 0,0 l/m 2 min 0 min 239 W/m 16,7 km/h (3 Bft) 97,87 %
13.08.2016 18:02 23,4 C 24,4 C 22,8 C 69 % 0 lf 1021,2 hPa 0,0 l/m 2 min 0 min 612 W/m 12,6 km/h (3 Bft) 95,92 %
13.08.2016 18:04 23,4 C 24,4 C 22,8 C 70 % 0 lf 1021,2 hPa 0,0 l/m 2 min 0 min 522 W/m 20,9 km/h (4 Bft) 93,62 %
13.08.2016 18:06 23,3 C 24,4 C 22,8 C 70 % 0 lf 1021,2 hPa 0,0 l/m 0 min 0 min 189 W/m 18,8 km/h (3 Bft) 95,74 %
13.08.2016 18:08 23,3 C 24,4 C 22,8 C 70 % 0 lf 1021,2 hPa 0,0 l/m 2 min 0 min 208 W/m 14,6 km/h (3 Bft) 95,74 %
13.08.2016 18:10 23,3 C 24,4 C 22,8 C 70 % 0 lf 1021,2 hPa 0,0 l/m 2 min 0 min 225 W/m 10,5 km/h (2 Bft) 95,65 %
13.08.2016 18:12 23,3 C 25,0 C 22,8 C 71 % 0 lf 1021,2 hPa 0,0 l/m 2 min 0 min 231 W/m 12,6 km/h (3 Bft) 97,87 %
13.08.2016 18:14 23,3 C 25,0 C 23,3 C 71 % 0 lf 1021,1 hPa 0,0 l/m 2 min 0 min 254 W/m 12,6 km/h (3 Bft) 93,62 %
13.08.2016 18:16 23,3 C 24,4 C 23,3 C 70 % 0 lf 1021,1 hPa 0,0 l/m 2 min 0 min 267 W/m 10,5 km/h (2 Bft) 97,87 %
13.08.2016 18:18 23,3 C 25,0 C 23,3 C 70 % 0 lf 1021,2 hPa 0,0 l/m 2 min 0 min 244 W/m 12,6 km/h (3 Bft) 97,87 %
13.08.2016 18:20 23,3 C 25,0 C 23,3 C 70 % 0 lf 1021,2 hPa 0,0 l/m 2 min 0 min 204 W/m 14,6 km/h (3 Bft) 95,65 %
13.08.2016 18:22 23,3 C 24,4 C 22,8 C 70 % 0 lf 1021,1 hPa 0,0 l/m 0 min 0 min 183 W/m 12,6 km/h (3 Bft) 95,74 %
13.08.2016 18:24 23,2 C 24,4 C 22,8 C 70 % 0 lf 1021,1 hPa 0,0 l/m 0 min 0 min 168 W/m 18,8 km/h (3 Bft) 97,87 %
13.08.2016 18:26 23,2 C 23,9 C 22,8 C 70 % 0 lf 1021,2 hPa 0,0 l/m 0 min 0 min 172 W/m 10,5 km/h (2 Bft) 97,87 %
13.08.2016 18:28 23,2 C 24,4 C 22,8 C 70 % 0 lf 1021,2 hPa 0,0 l/m 0 min 0 min 179 W/m 6,3 km/h (2 Bft) 97,87 %
13.08.2016 18:30 23,2 C 24,4 C 22,8 C 70 % 0 lf 1021,2 hPa 0,0 l/m 0 min 0 min 159 W/m 8,4 km/h (2 Bft) 93,62 %
13.08.2016 18:32 23,2 C 24,4 C 22,8 C 71 % 0 lf 1021,2 hPa 0,0 l/m 0 min 0 min 143 W/m 16,7 km/h (3 Bft) 95,65 %
13.08.2016 18:34 23,2 C 23,9 C 22,2 C 70 % 0 lf 1021,2 hPa 0,0 l/m 0 min 0 min 137 W/m 16,7 km/h (3 Bft) 97,87 %
13.08.2016 18:36 23,1 C 23,9 C 22,2 C 70 % 0 lf 1021,3 hPa 0,0 l/m 0 min 0 min 127 W/m 14,6 km/h (3 Bft) 95,74 %
13.08.2016 18:38 23,1 C 23,9 C 22,2 C 70 % 0 lf 1021,3 hPa 0,0 l/m 0 min 0 min 132 W/m 14,6 km/h (3 Bft) 95,74 %
13.08.2016 18:40 23,1 C 23,9 C 22,2 C 70 % 0 lf 1021,3 hPa 0,0 l/m 0 min 0 min 141 W/m 14,6 km/h (3 Bft) 97,87 %
13.08.2016 18:42 23,1 C 23,9 C 22,2 C 70 % 0 lf 1021,3 hPa 0,0 l/m 0 min 0 min 148 W/m 10,5 km/h (2 Bft) 95,74 %
13.08.2016 18:44 23,0 C 23,9 C 22,2 C 70 % 0 lf 1021,2 hPa 0,0 l/m 0 min 0 min 142 W/m 12,6 km/h (3 Bft) 97,83 %
13.08.2016 18:46 23,0 C 23,9 C 22,2 C 70 % 0 lf 1021,3 hPa 0,0 l/m 0 min 0 min 135 W/m 10,5 km/h (2 Bft) 97,87 %
13.08.2016 18:48 22,9 C 23,9 C 22,2 C 70 % 0 lf 1021,3 hPa 0,0 l/m 0 min 0 min 139 W/m 12,6 km/h (3 Bft) 97,87 %
13.08.2016 18:50 22,9 C 23,9 C 22,2 C 71 % 0 lf 1021,3 hPa 0,0 l/m 0 min 0 min 148 W/m 8,4 km/h (2 Bft) 97,87 %
13.08.2016 18:52 22,9 C 23,9 C 22,2 C 71 % 0 lf 1021,3 hPa 0,0 l/m 0 min 0 min 153 W/m 10,5 km/h (2 Bft) 97,87 %
13.08.2016 18:54 22,9 C 23,9 C 22,2 C 71 % 0 lf 1021,3 hPa 0,0 l/m 0 min 0 min 151 W/m 8,4 km/h (2 Bft) 97,87 %
13.08.2016 18:56 22,9 C 23,9 C 22,2 C 71 % 0 lf 1021,3 hPa 0,0 l/m 2 min 0 min 149 W/m 6,3 km/h (2 Bft) 95,65 %
13.08.2016 18:58 22,9 C 23,9 C 22,2 C 71 % 0 lf 1021,3 hPa 0,0 l/m 0 min 0 min 142 W/m 12,6 km/h (3 Bft) 97,87 %
13.08.2016 19:00 22,9 C 23,9 C 21,7 C 71 % 0 lf 1021,3 hPa 0,0 l/m 0 min 0 min 138 W/m 10,5 km/h (2 Bft) 93,62 %
13.08.2016 19:02 22,9 C 23,9 C 21,7 C 71 % 0 lf 1021,3 hPa 0,0 l/m 2 min 0 min 143 W/m 12,6 km/h (3 Bft) 97,87 %
13.08.2016 19:04 22,9 C 23,9 C 21,7 C 71 % 0 lf 1021,3 hPa 0,0 l/m 2 min 0 min 165 W/m 14,6 km/h (3 Bft) 100,00 %
13.08.2016 19:06 22,8 C 23,9 C 21,7 C 71 % 0 lf 1021,2 hPa 0,0 l/m 2 min 0 min 201 W/m 8,4 km/h (2 Bft) 97,87 %
13.08.2016 19:08 22,8 C 23,9 C 21,7 C 71 % 0 lf 1021,2 hPa 0,0 l/m 2 min 0 min 221 W/m 10,5 km/h (2 Bft) 91,30 %
13.08.2016 19:10 22,8 C 23,9 C 21,7 C 71 % 0 lf 1021,2 hPa 0,0 l/m 2 min 0 min 213 W/m 10,5 km/h (2 Bft) 97,87 %
13.08.2016 19:12 22,8 C 23,9 C 21,7 C 72 % 0 lf 1021,3 hPa 0,0 l/m 2 min 0 min 226 W/m 10,5 km/h (2 Bft) 97,87 %
13.08.2016 19:14 22,8 C 23,9 C 22,2 C 71 % 0 lf 1021,3 hPa 0,0 l/m 2 min 0 min 223 W/m 12,6 km/h (3 Bft) 97,87 %
13.08.2016 19:16 22,8 C 23,9 C 21,7 C 71 % 0 lf 1021,3 hPa 0,0 l/m 2 min 0 min 232 W/m 14,6 km/h (3 Bft) 100,00 %
13.08.2016 19:18 22,8 C 23,9 C 21,7 C 71 % 0 lf 1021,3 hPa 0,0 l/m 2 min 0 min 211 W/m 14,6 km/h (3 Bft) 97,87 %
13.08.2016 19:20 22,8 C 23,9 C 21,7 C 71 % 0 lf 1021,3 hPa 0,0 l/m 2 min 0 min 192 W/m 14,6 km/h (3 Bft) 95,65 %
13.08.2016 19:22 22,8 C 23,3 C 21,7 C 71 % 0 lf 1021,2 hPa 0,0 l/m 2 min 0 min 175 W/m 14,6 km/h (3 Bft) 100,00 %
13.08.2016 19:24 22,8 C 23,3 C 21,1 C 71 % 0 lf 1021,2 hPa 0,0 l/m 2 min 0 min 146 W/m 16,7 km/h (3 Bft) 97,87 %
13.08.2016 19:26 22,8 C 23,3 C 21,1 C 71 % 0 lf 1021,2 hPa 0,0 l/m 2 min 0 min 133 W/m 8,4 km/h (2 Bft) 97,87 %
13.08.2016 19:28 22,7 C 22,8 C 21,1 C 71 % 0 lf 1021,2 hPa 0,0 l/m 2 min 0 min 126 W/m 14,6 km/h (3 Bft) 93,62 %
13.08.2016 19:30 22,7 C 22,8 C 21,1 C 71 % 0 lf 1021,3 hPa 0,0 l/m 2 min 0 min 127 W/m 16,7 km/h (3 Bft) 97,83 %
13.08.2016 19:32 22,7 C 22,8 C 20,6 C 71 % 0 lf 1021,3 hPa 0,0 l/m 2 min 0 min 125 W/m 14,6 km/h (3 Bft) 97,87 %
13.08.2016 19:34 22,7 C 22,8 C 20,6 C 71 % 0 lf 1021,2 hPa 0,0 l/m 2 min 0 min 105 W/m 12,6 km/h (3 Bft) 97,87 %
13.08.2016 19:36 22,6 C 22,8 C 20,6 C 71 % 0 lf 1021,2 hPa 0,0 l/m 2 min 0 min 109 W/m 10,5 km/h (2 Bft) 97,87 %
13.08.2016 19:38 22,6 C 22,8 C 20,6 C 71 % 0 lf 1021,2 hPa 0,0 l/m 2 min 0 min 114 W/m 8,4 km/h (2 Bft) 97,87 %
13.08.2016 19:40 22,6 C 22,8 C 20,6 C 71 % 0 lf 1021,2 hPa 0,0 l/m 2 min 0 min 108 W/m 14,6 km/h (3 Bft) 95,74 %
13.08.2016 19:42 22,6 C 22,8 C 20,6 C 71 % 0 lf 1021,2 hPa 0,0 l/m 2 min 0 min 102 W/m 10,5 km/h (2 Bft) 93,48 %
13.08.2016 19:44 22,5 C 22,8 C 20,6 C 71 % 0 lf 1021,2 hPa 0,0 l/m 2 min 0 min 98 W/m 10,5 km/h (2 Bft) 91,49 %
13.08.2016 19:46 22,4 C 22,8 C 20,6 C 72 % 0 lf 1021,3 hPa 0,0 l/m 2 min 0 min 93 W/m 10,5 km/h (2 Bft) 91,49 %
13.08.2016 19:48 22,4 C 22,2 C 20,6 C 72 % 0 lf 1021,3 hPa 0,0 l/m 2 min 0 min 90 W/m 8,4 km/h (2 Bft) 95,74 %
13.08.2016 19:50 22,4 C 22,2 C 20,6 C 72 % 0 lf 1021,3 hPa 0,0 l/m 2 min 0 min 86 W/m 4,2 km/h (1 Bft) 97,87 %
13.08.2016 19:52 22,4 C 22,2 C 20,0 C 72 % 0 lf 1021,3 hPa 0,0 l/m 2 min 0 min 78 W/m 12,6 km/h (3 Bft) 95,74 %
13.08.2016 19:54 22,4 C 22,2 C 20,0 C 73 % 0 lf 1021,3 hPa 0,0 l/m 0 min 0 min 74 W/m 6,3 km/h (2 Bft) 93,48 %
13.08.2016 19:56 22,4 C 22,2 C 20,0 C 73 % 0 lf 1021,3 hPa 0,0 l/m 0 min 0 min 70 W/m 4,2 km/h (1 Bft) 93,62 %
13.08.2016 19:58 22,3 C 22,2 C 20,0 C 73 % 0 lf 1021,3 hPa 0,0 l/m 0 min 0 min 67 W/m 8,4 km/h (2 Bft) 95,74 %
13.08.2016 20:00 22,3 C 21,7 C 20,0 C 73 % 0 lf 1021,3 hPa 0,0 l/m 0 min 0 min 64 W/m 4,2 km/h (1 Bft) 93,62 %
13.08.2016 20:02 22,3 C 21,7 C 19,4 C 73 % 0 lf 1021,3 hPa 0,0 l/m 0 min 0 min 60 W/m 6,3 km/h (2 Bft) 89,36 %
13.08.2016 20:04 22,3 C 21,7 C 19,4 C 73 % 0 lf 1021,3 hPa 0,0 l/m 0 min 0 min 58 W/m 4,2 km/h (1 Bft) 93,62 %
13.08.2016 20:06 22,2 C 21,7 C 19,4 C 73 % 0 lf 1021,2 hPa 0,0 l/m 0 min 0 min 55 W/m 4,2 km/h (1 Bft) 93,48 %
13.08.2016 20:08 22,2 C 21,1 C 18,9 C 73 % 0 lf 1021,2 hPa 0,0 l/m 0 min 0 min 52 W/m 4,2 km/h (1 Bft) 95,74 %
13.08.2016 20:10 22,2 C 21,1 C 18,9 C 74 % 0 lf 1021,3 hPa 0,0 l/m 0 min 0 min 51 W/m 4,2 km/h (1 Bft) 93,62 %
13.08.2016 20:12 22,2 C 21,1 C 18,9 C 74 % 0 lf 1021,3 hPa 0,0 l/m 0 min 0 min 49 W/m 4,2 km/h (1 Bft) 95,74 %
13.08.2016 20:14 22,1 C 21,1 C 18,9 C 74 % 0 lf 1021,3 hPa 0,0 l/m 2 min 0 min 49 W/m 4,2 km/h (1 Bft) 91,49 %
13.08.2016 20:16 22,1 C 21,1 C 18,9 C 74 % 0 lf 1021,3 hPa 0,0 l/m 2 min 0 min 50 W/m 8,4 km/h (2 Bft) 95,74 %
13.08.2016 20:18 22,0 C 21,1 C 18,3 C 74 % 0 lf 1021,3 hPa 0,0 l/m 2 min 0 min 49 W/m 4,2 km/h (1 Bft) 95,65 %
13.08.2016 20:20 22,0 C 20,6 C 18,3 C 74 % 0 lf 1021,3 hPa 0,0 l/m 2 min 0 min 47 W/m 4,2 km/h (1 Bft) 91,49 %
13.08.2016 20:22 21,9 C 20,6 C 18,3 C 74 % 0 lf 1021,3 hPa 0,0 l/m 2 min 0 min 43 W/m 2,1 km/h (1 Bft) 91,49 %
13.08.2016 20:24 21,9 C 20,6 C 18,3 C 74 % 0 lf 1021,3 hPa 0,0 l/m 2 min 0 min 40 W/m 2,1 km/h (1 Bft) 95,74 %
13.08.2016 20:26 21,9 C 20,6 C 18,3 C 74 % 0 lf 1021,3 hPa 0,0 l/m 2 min 0 min 38 W/m 2,1 km/h (1 Bft) 95,74 %
13.08.2016 20:28 21,8 C 20,6 C 18,3 C 75 % 0 lf 1021,3 hPa 0,0 l/m 2 min 0 min 35 W/m 2,1 km/h (1 Bft) 95,74 %
13.08.2016 20:30 21,8 C 20,6 C 17,8 C 75 % 0 lf 1021,3 hPa 0,0 l/m 2 min 0 min 34 W/m 2,1 km/h (1 Bft) 93,48 %
13.08.2016 20:32 21,8 C 20,0 C 17,8 C 75 % 0 lf 1021,3 hPa 0,0 l/m 2 min 0 min 35 W/m 2,1 km/h (1 Bft) 91,49 %
13.08.2016 20:34 21,7 C 20,0 C 17,8 C 75 % 0 lf 1021,3 hPa 0,0 l/m 2 min 0 min 33 W/m 2,1 km/h (1 Bft) 91,49 %
13.08.2016 20:36 21,7 C 20,0 C 17,8 C 76 % 0 lf 1021,3 hPa 0,0 l/m 2 min 0 min 33 W/m 2,1 km/h (1 Bft) 97,87 %
13.08.2016 20:38 21,6 C 20,0 C 17,8 C 76 % 0 lf 1021,2 hPa 0,0 l/m 2 min 0 min 32 W/m 0,0 km/h (0 Bft) 97,87 %
13.08.2016 20:40 21,6 C 20,0 C 17,2 C 76 % 0 lf 1021,3 hPa 0,0 l/m 2 min 0 min 29 W/m 0,0 km/h (0 Bft) 97,83 %
13.08.2016 20:42 21,5 C 20,0 C 17,2 C 76 % 0 lf 1021,3 hPa 0,0 l/m 2 min 0 min 26 W/m 0,0 km/h (0 Bft) 100,00 %
13.08.2016 20:44 21,5 C 20,0 C 17,2 C 77 % 0 lf 1021,2 hPa 0,0 l/m 2 min 0 min 26 W/m 2,1 km/h (1 Bft) 97,87 %
13.08.2016 20:46 21,4 C 19,4 C 17,2 C 77 % 0 lf 1021,3 hPa 0,0 l/m 2 min 0 min 24 W/m 0,0 km/h (0 Bft) 97,87 %
13.08.2016 20:48 21,4 C 19,4 C 17,2 C 77 % 0 lf 1021,3 hPa 0,0 l/m 0 min 0 min 21 W/m 0,0 km/h (0 Bft) 100,00 %
13.08.2016 20:50 21,3 C 19,4 C 17,2 C 77 % 0 lf 1021,3 hPa 0,0 l/m 0 min 0 min 19 W/m 0,0 km/h (0 Bft) 97,87 %
13.08.2016 20:52 21,3 C 19,4 C 17,2 C 77 % 0 lf 1021,3 hPa 0,0 l/m 0 min 0 min 18 W/m 0,0 km/h (0 Bft) 97,83 %
13.08.2016 20:54 21,2 C 18,9 C 16,7 C 78 % 0 lf 1021,3 hPa 0,0 l/m 0 min 0 min 15 W/m 0,0 km/h (0 Bft) 95,74 %
13.08.2016 20:56 21,1 C 18,9 C 16,7 C 78 % 0 lf 1021,2 hPa 0,0 l/m 0 min 0 min 14 W/m 0,0 km/h (0 Bft) 97,87 %
13.08.2016 20:58 21,1 C 18,9 C 16,7 C 78 % 0 lf 1021,2 hPa 0,0 l/m 0 min 0 min 12 W/m 0,0 km/h (0 Bft) 97,87 %
13.08.2016 21:00 21,0 C 18,9 C 16,7 C 78 % 0 lf 1021,3 hPa 0,0 l/m 0 min 0 min 11 W/m 0,0 km/h (0 Bft) 100,00 %
13.08.2016 21:02 20,9 C 18,9 C 16,7 C 78 % 0 lf 1021,3 hPa 0,0 l/m 0 min 0 min 11 W/m 0,0 km/h (0 Bft) 100,00 %
13.08.2016 21:04 20,9 C 18,9 C 16,7 C 79 % 0 lf 1021,3 hPa 0,0 l/m 0 min 0 min 9 W/m 0,0 km/h (0 Bft) 93,48 %
13.08.2016 21:06 20,8 C 18,9 C 16,7 C 79 % 1 lf 1021,4 hPa 0,0 l/m 0 min 0 min 8 W/m 0,0 km/h (0 Bft) 100,00 %
13.08.2016 21:08 20,7 C 18,3 C 16,7 C 79 % 1 lf 1021,4 hPa 0,0 l/m 0 min 0 min 7 W/m 0,0 km/h (0 Bft) 97,87 %
13.08.2016 21:10 20,7 C 18,3 C 16,1 C 79 % 1 lf 1021,4 hPa 0,0 l/m 0 min 0 min 7 W/m 0,0 km/h (0 Bft) 100,00 %
13.08.2016 21:12 20,6 C 18,3 C 16,1 C 80 % 1 lf 1021,4 hPa 0,0 l/m 0 min 0 min 7 W/m 0,0 km/h (0 Bft) 95,74 %
13.08.2016 21:14 20,5 C 18,3 C 16,1 C 80 % 1 lf 1021,4 hPa 0,0 l/m 0 min 0 min 7 W/m 0,0 km/h (0 Bft) 100,00 %
13.08.2016 21:16 20,4 C 18,3 C 16,1 C 80 % 1 lf 1021,5 hPa 0,0 l/m 0 min 0 min 0 W/m 0,0 km/h (0 Bft) 97,83 %
13.08.2016 21:18 20,4 C 18,3 C 16,1 C 80 % 1 lf 1021,4 hPa 0,0 l/m 0 min 0 min 0 W/m 0,0 km/h (0 Bft) 91,49 %
13.08.2016 21:20 20,3 C 17,8 C 16,1 C 80 % 1 lf 1021,5 hPa 0,0 l/m 0 min 0 min 0 W/m 0,0 km/h (0 Bft) 97,87 %
13.08.2016 21:22 20,2 C 17,8 C 16,1 C 81 % 1 lf 1021,4 hPa 0,0 l/m 0 min 0 min 5 W/m 0,0 km/h (0 Bft) 97,87 %
13.08.2016 21:24 20,2 C 17,8 C 16,1 C 81 % 1 lf 1021,5 hPa 0,0 l/m 0 min 0 min 5 W/m 0,0 km/h (0 Bft) 97,87 %
13.08.2016 21:26 20,1 C 17,8 C 15,6 C 81 % 1 lf 1021,5 hPa 0,0 l/m 0 min 0 min 5 W/m 0,0 km/h (0 Bft) 95,74 %
13.08.2016 21:28 20,1 C 17,8 C 15,6 C 81 % 1 lf 1021,5 hPa 0,0 l/m 0 min 0 min 5 W/m 0,0 km/h (0 Bft) 86,96 %
13.08.2016 21:30 20,0 C 17,8 C 15,6 C 81 % 1 lf 1021,4 hPa 0,0 l/m 0 min 0 min 5 W/m 0,0 km/h (0 Bft) 95,74 %
13.08.2016 21:32 19,9 C 17,8 C 15,6 C 81 % 1 lf 1021,4 hPa 0,0 l/m 0 min 0 min 5 W/m 0,0 km/h (0 Bft) 95,74 %
13.08.2016 21:34 19,8 C 17,8 C 15,6 C 82 % 1 lf 1021,5 hPa 0,0 l/m 0 min 0 min 5 W/m 0,0 km/h (0 Bft) 95,74 %
13.08.2016 21:36 19,8 C 17,8 C 15,6 C 82 % 1 lf 1021,4 hPa 0,0 l/m 0 min 0 min 5 W/m 0,0 km/h (0 Bft) 95,74 %
13.08.2016 21:38 19,7 C 17,8 C 15,6 C 82 % 1 lf 1021,5 hPa 0,0 l/m 0 min 0 min 5 W/m 0,0 km/h (0 Bft) 93,62 %
13.08.2016 21:40 19,7 C 17,8 C 15,6 C 82 % 1 lf 1021,4 hPa 0,0 l/m 0 min 0 min 0 W/m 0,0 km/h (0 Bft) 95,65 %
13.08.2016 21:42 19,6 C 17,8 C 15,6 C 82 % 1 lf 1021,5 hPa 0,0 l/m 0 min 0 min 0 W/m 0,0 km/h (0 Bft) 95,74 %
13.08.2016 21:44 19,5 C 17,8 C 15,6 C 82 % 1 lf 1021,5 hPa 0,0 l/m 0 min 0 min 0 W/m 0,0 km/h (0 Bft) 93,62 %
13.08.2016 21:46 19,4 C 17,2 C 15,6 C 82 % 1 lf 1021,5 hPa 0,0 l/m 0 min 0 min 0 W/m 0,0 km/h (0 Bft) 95,74 %
13.08.2016 21:48 19,4 C 17,2 C 15,6 C 82 % 1 lf 1021,5 hPa 0,0 l/m 0 min 0 min 0 W/m 0,0 km/h (0 Bft) 93,62 %
13.08.2016 21:50 19,3 C 17,2 C 15,6 C 82 % 1 lf 1021,5 hPa 0,0 l/m 0 min 0 min 0 W/m 0,0 km/h (0 Bft) 95,74 %
13.08.2016 21:52 19,3 C 17,2 C 15,0 C 83 % 1 lf 1021,6 hPa 0,0 l/m 0 min 0 min 0 W/m 0,0 km/h (0 Bft) 93,48 %
13.08.2016 21:54 19,2 C 17,2 C 15,0 C 83 % 2 lf 1021,5 hPa 0,0 l/m 0 min 0 min 0 W/m 0,0 km/h (0 Bft) 95,74 %
13.08.2016 21:56 19,2 C 17,2 C 15,0 C 83 % 2 lf 1021,5 hPa 0,0 l/m 0 min 0 min 0 W/m 0,0 km/h (0 Bft) 95,74 %
13.08.2016 21:58 19,1 C 17,2 C 15,0 C 84 % 2 lf 1021,6 hPa 0,0 l/m 0 min 0 min 0 W/m 0,0 km/h (0 Bft) 95,74 %
13.08.2016 22:00 19,1 C 17,2 C 15,0 C 83 % 2 lf 1021,5 hPa 0,0 l/m 0 min 0 min 0 W/m 0,0 km/h (0 Bft) 95,74 %
13.08.2016 22:02 19,0 C 17,2 C 15,0 C 84 % 2 lf 1021,5 hPa 0,0 l/m 0 min 0 min 0 W/m 0,0 km/h (0 Bft) 97,87 %
13.08.2016 22:04 18,9 C 16,7 C 15,0 C 84 % 2 lf 1021,5 hPa 0,0 l/m 0 min 0 min 0 W/m 0,0 km/h (0 Bft) 95,65 %
13.08.2016 22:06 18,9 C 16,7 C 15,0 C 84 % 2 lf 1021,5 hPa 0,0 l/m 0 min 0 min 0 W/m 0,0 km/h (0 Bft) 95,74 %
13.08.2016 22:08 18,8 C 16,7 C 15,0 C 84 % 2 lf 1021,5 hPa 0,0 l/m 0 min 0 min 5 W/m 0,0 km/h (0 Bft) 97,87 %
13.08.2016 22:10 18,8 C 16,7 C 15,0 C 84 % 2 lf 1021,5 hPa 0,0 l/m 0 min 0 min 0 W/m 0,0 km/h (0 Bft) 100,00 %
13.08.2016 22:12 18,7 C 16,7 C 15,0 C 84 % 2 lf 1021,5 hPa 0,0 l/m 0 min 0 min 5 W/m 0,0 km/h (0 Bft) 97,87 %
13.08.2016 22:14 18,7 C 16,7 C 15,0 C 85 % 2 lf 1021,5 hPa 0,0 l/m 0 min 0 min 5 W/m 0,0 km/h (0 Bft) 97,87 %
13.08.2016 22:16 18,6 C 16,7 C 15,0 C 85 % 2 lf 1021,5 hPa 0,0 l/m 0 min 0 min 5 W/m 0,0 km/h (0 Bft) 97,83 %
13.08.2016 22:18 18,6 C 16,7 C 15,0 C 85 % 2 lf 1021,5 hPa 0,0 l/m 0 min 0 min 5 W/m 0,0 km/h (0 Bft) 97,87 %
13.08.2016 22:20 18,6 C 16,7 C 15,0 C 85 % 2 lf 1021,5 hPa 0,0 l/m 0 min 0 min 5 W/m 0,0 km/h (0 Bft) 97,87 %
13.08.2016 22:22 18,4 C 16,1 C 15,0 C 85 % 2 lf 1021,5 hPa 0,0 l/m 0 min 0 min 5 W/m 0,0 km/h (0 Bft) 97,87 %
13.08.2016 22:24 18,4 C 16,1 C 15,0 C 85 % 2 lf 1021,5 hPa 0,0 l/m 0 min 0 min 5 W/m 0,0 km/h (0 Bft) 100,00 %
13.08.2016 22:26 18,4 C 16,1 C 14,4 C 86 % 2 lf 1021,5 hPa 0,0 l/m 0 min 0 min 5 W/m 0,0 km/h (0 Bft) 97,83 %
13.08.2016 22:28 18,3 C 16,1 C 14,4 C 86 % 2 lf 1021,5 hPa 0,0 l/m 0 min 0 min 5 W/m 0,0 km/h (0 Bft) 97,87 %
13.08.2016 22:30 18,3 C 16,1 C 14,4 C 86 % 2 lf 1021,5 hPa 0,0 l/m 0 min 0 min 5 W/m 0,0 km/h (0 Bft) 100,00 %
13.08.2016 22:32 18,2 C 16,1 C 14,4 C 86 % 2 lf 1021,6 hPa 0,0 l/m 0 min 0 min 0 W/m 0,0 km/h (0 Bft) 100,00 %
13.08.2016 22:34 18,2 C 16,1 C 14,4 C 86 % 2 lf 1021,5 hPa 0,0 l/m 0 min 0 min 4 W/m 0,0 km/h (0 Bft) 100,00 %
13.08.2016 22:36 18,1 C 15,6 C 14,4 C 86 % 3 lf 1021,5 hPa 0,0 l/m 0 min 0 min 0 W/m 0,0 km/h (0 Bft) 100,00 %
13.08.2016 22:38 18,1 C 15,6 C 14,4 C 87 % 3 lf 1021,5 hPa 0,0 l/m 0 min 0 min 0 W/m 0,0 km/h (0 Bft) 100,00 %
13.08.2016 22:40 18,0 C 15,6 C 14,4 C 87 % 3 lf 1021,6 hPa 0,0 l/m 0 min 0 min 0 W/m 0,0 km/h (0 Bft) 97,87 %
13.08.2016 22:42 18,0 C 15,6 C 14,4 C 87 % 3 lf 1021,6 hPa 0,0 l/m 0 min 0 min 0 W/m 0,0 km/h (0 Bft) 100,00 %
13.08.2016 22:44 17,9 C 15,6 C 14,4 C 87 % 3 lf 1021,5 hPa 0,0 l/m 0 min 0 min 0 W/m 0,0 km/h (0 Bft) 97,87 %
13.08.2016 22:46 17,9 C 15,6 C 14,4 C 87 % 3 lf 1021,5 hPa 0,0 l/m 0 min 0 min 0 W/m 0,0 km/h (0 Bft) 100,00 %
13.08.2016 22:48 17,8 C 15,6 C 14,4 C 87 % 3 lf 1021,5 hPa 0,0 l/m 0 min 0 min 0 W/m 0,0 km/h (0 Bft) 100,00 %
13.08.2016 22:50 17,8 C 15,6 C 14,4 C 87 % 3 lf 1021,4 hPa 0,0 l/m 0 min 0 min 0 W/m 0,0 km/h (0 Bft) 97,83 %
13.08.2016 22:52 17,7 C 15,6 C 14,4 C 87 % 3 lf 1021,4 hPa 0,0 l/m 0 min 0 min 0 W/m 0,0 km/h (0 Bft) 97,87 %
13.08.2016 22:54 17,7 C 15,6 C 14,4 C 88 % 3 lf 1021,5 hPa 0,0 l/m 0 min 0 min 0 W/m 0,0 km/h (0 Bft) 95,74 %
13.08.2016 22:56 17,6 C 15,6 C 14,4 C 88 % 3 lf 1021,4 hPa 0,0 l/m 0 min 0 min 0 W/m 0,0 km/h (0 Bft) 95,74 %
13.08.2016 22:58 17,6 C 15,6 C 14,4 C 87 % 3 lf 1021,5 hPa 0,0 l/m 0 min 0 min 0 W/m 0,0 km/h (0 Bft) 95,74 %
13.08.2016 23:00 17,6 C 15,6 C 14,4 C 87 % 3 lf 1021,5 hPa 0,0 l/m 0 min 0 min 0 W/m 0,0 km/h (0 Bft) 97,87 %
13.08.2016 23:02 17,5 C 15,6 C 14,4 C 88 % 4 lf 1021,5 hPa 0,0 l/m 0 min 0 min 0 W/m 0,0 km/h (0 Bft) 95,65 %
13.08.2016 23:04 17,4 C 15,6 C 13,9 C 88 % 4 lf 1021,5 hPa 0,0 l/m 0 min 0 min 0 W/m 0,0 km/h (0 Bft) 97,87 %
13.08.2016 23:06 17,4 C 15,6 C 13,9 C 88 % 4 lf 1021,5 hPa 0,0 l/m 0 min 0 min 0 W/m 0,0 km/h (0 Bft) 95,74 %
13.08.2016 23:08 17,4 C 15,6 C 13,9 C 88 % 4 lf 1021,5 hPa 0,0 l/m 0 min 0 min 0 W/m 0,0 km/h (0 Bft) 93,62 %
13.08.2016 23:10 17,3 C 15,6 C 13,9 C 88 % 4 lf 1021,5 hPa 0,0 l/m 0 min 0 min 2 W/m 0,0 km/h (0 Bft) 95,74 %
13.08.2016 23:12 17,3 C 15,0 C 13,9 C 88 % 5 lf 1021,4 hPa 0,0 l/m 0 min 0 min 0 W/m 0,0 km/h (0 Bft) 95,74 %
13.08.2016 23:14 17,3 C 15,0 C 13,9 C 88 % 5 lf 1021,4 hPa 0,0 l/m 0 min 0 min 0 W/m 0,0 km/h (0 Bft) 95,65 %
13.08.2016 23:16 17,2 C 15,0 C 13,9 C 88 % 5 lf 1021,5 hPa 0,0 l/m 0 min 0 min 0 W/m 2,1 km/h (1 Bft) 95,74 %
13.08.2016 23:18 17,2 C 15,0 C 13,9 C 88 % 5 lf 1021,6 hPa 0,0 l/m 0 min 0 min 0 W/m 2,1 km/h (1 Bft) 97,87 %
13.08.2016 23:20 17,1 C 15,0 C 13,9 C 89 % 5 lf 1021,5 hPa 0,0 l/m 0 min 0 min 0 W/m 4,2 km/h (1 Bft) 97,87 %
13.08.2016 23:22 17,1 C 15,0 C 13,9 C 89 % 5 lf 1021,5 hPa 0,0 l/m 0 min 0 min 0 W/m 4,2 km/h (1 Bft) 91,49 %
13.08.2016 23:24 17,1 C 15,0 C 13,9 C 89 % 5 lf 1021,6 hPa 0,0 l/m 0 min 0 min 0 W/m 2,1 km/h (1 Bft) 91,30 %
13.08.2016 23:26 17,0 C 15,0 C 13,9 C 89 % 6 lf 1021,6 hPa 0,0 l/m 0 min 0 min 0 W/m 0,0 km/h (0 Bft) 89,36 %
13.08.2016 23:28 16,9 C 15,0 C 13,9 C 89 % 6 lf 1021,6 hPa 0,0 l/m 0 min 0 min 0 W/m 2,1 km/h (1 Bft) 91,49 %
13.08.2016 23:30 16,9 C 15,0 C 13,9 C 89 % 7 lf 1021,6 hPa 0,0 l/m 0 min 0 min 0 W/m 0,0 km/h (0 Bft) 93,62 %
13.08.2016 23:32 16,9 C 15,0 C 13,9 C 89 % 8 lf 1021,7 hPa 0,0 l/m 0 min 0 min 0 W/m 0,0 km/h (0 Bft) 89,36 %
13.08.2016 23:34 16,9 C 15,0 C 13,9 C 89 % 8 lf 1021,7 hPa 0,0 l/m 0 min 0 min 0 W/m 0,0 km/h (0 Bft) 93,62 %
13.08.2016 23:36 16,8 C 15,0 C 13,9 C 90 % 9 lf 1021,7 hPa 0,0 l/m 0 min 0 min 0 W/m 0,0 km/h (0 Bft) 91,49 %
13.08.2016 23:38 16,8 C 15,0 C 13,9 C 90 % 9 lf 1021,6 hPa 0,0 l/m 0 min 0 min 0 W/m 0,0 km/h (0 Bft) 91,30 %
13.08.2016 23:40 16,8 C 15,0 C 13,9 C 90 % 9 lf 1021,6 hPa 0,0 l/m 0 min 0 min 0 W/m 2,1 km/h (1 Bft) 93,62 %
13.08.2016 23:42 16,7 C 15,0 C 13,9 C 90 % 10 lf 1021,6 hPa 0,0 l/m 0 min 0 min 0 W/m 2,1 km/h (1 Bft) 93,62 %
13.08.2016 23:44 16,7 C 15,0 C 13,9 C 90 % 10 lf 1021,7 hPa 0,0 l/m 0 min 0 min 0 W/m 2,1 km/h (1 Bft) 93,62 %
13.08.2016 23:46 16,7 C 15,0 C 13,9 C 90 % 10 lf 1021,7 hPa 0,0 l/m 0 min 0 min 0 W/m 0,0 km/h (0 Bft) 93,62 %
13.08.2016 23:48 16,7 C 15,0 C 13,9 C 90 % 11 lf 1021,7 hPa 0,0 l/m 0 min 0 min 0 W/m 2,1 km/h (1 Bft) 95,65 %
13.08.2016 23:50 16,6 C 15,0 C 13,9 C 90 % 11 lf 1021,7 hPa 0,0 l/m 0 min 0 min 0 W/m 2,1 km/h (1 Bft) 95,74 %
13.08.2016 23:52 16,6 C 15,0 C 13,9 C 90 % 12 lf 1021,7 hPa 0,0 l/m 0 min 0 min 0 W/m 0,0 km/h (0 Bft) 91,49 %
13.08.2016 23:54 16,6 C 15,0 C 13,9 C 90 % 12 lf 1021,7 hPa 0,0 l/m 0 min 0 min 0 W/m 0,0 km/h (0 Bft) 93,62 %
13.08.2016 23:56 16,5 C 15,0 C 13,9 C 90 % 12 lf 1021,7 hPa 0,0 l/m 0 min 0 min 0 W/m 0,0 km/h (0 Bft) 97,87 %
13.08.2016 23:58 16,4 C 15,0 C 13,9 C 90 % 12 lf 1021,7 hPa 0,0 l/m 0 min 0 min 0 W/m 4,2 km/h (1 Bft) 95,74 %
_ Min-Zeit 06:42 03:42 03:44 16:06 09:20 04:56 - - - - 20:38 04:06
Minimum _ 14,7 C 15,0 C 12,8 C 67 % 0 lf 1020,8 hPa - - - - 0,0 km/h (0 Bft) 4,76 %
_ Max-Zeit 14:52 14:46 14:40 04:34 03:10 00:00 00:00 06:38 00:00 13:44 12:34 00:34
Maximum _ 23,6 C 32,2 C 31,1 C 96 % 15 lf 1022,2 hPa 0,0 l/m 2 min 0 min 1573 W/m 31,4 km/h
W-SW (5 Bft)
100,00 %
Durchschnitt _ 19,2 C 21,1 C 18,5 C 83 % 3 lf 1021,4 hPa #0,0 l/m #10:58 h #0 min. 320 W/m 12,1 km/h (2 Bft) 95,51 %
© 2016 W. Hausmann